Wetterdaten: Donnerstag, 06.06.2019
Datum Zeit Temp. Aussen Temp. o. S. +5cm Feuchte Auss Luftdruck Regen Sonnenschein Regendauer Solar Windben Empfang
06.06.2019 00:00 20,4 C 19,4 C 19,4 C 82 % 1002,7 hPa 0,0 l/m 0 min 0 min 0 W/m 12,9 km/h (3 Bft) 97,87 %
06.06.2019 00:02 20,4 C 19,4 C 19,4 C 82 % 1003,3 hPa 0,0 l/m 0 min 0 min 0 W/m 22,5 km/h (4 Bft) 97,37 %
06.06.2019 00:04 20,4 C 19,4 C 19,4 C 82 % 1003,8 hPa 0,0 l/m 0 min 0 min 0 W/m 29,0 km/h (5 Bft) 97,83 %
06.06.2019 00:07 20,3 C 19,4 C 19,4 C 82 % 1004,2 hPa 0,0 l/m 0 min 0 min 0 W/m 25,7 km/h (4 Bft) 97,18 %
06.06.2019 00:10 20,2 C 18,9 C 18,9 C 81 % 1004,4 hPa 0,0 l/m 0 min 0 min 0 W/m 32,2 km/h (5 Bft) 97,14 %
06.06.2019 00:12 20,1 C 18,9 C 18,9 C 80 % 1004,5 hPa 0,0 l/m 0 min 0 min 0 W/m 32,2 km/h (5 Bft) 97,87 %
06.06.2019 00:14 19,9 C 18,3 C 18,3 C 80 % 1004,4 hPa 0,0 l/m 0 min 0 min 0 W/m 35,4 km/h (5 Bft) 97,83 %
06.06.2019 00:16 19,7 C 18,3 C 18,3 C 79 % 1004,4 hPa 0,0 l/m 0 min 0 min 0 W/m 32,2 km/h (5 Bft) 95,74 %
06.06.2019 00:18 19,6 C 17,8 C 18,3 C 79 % 1004,1 hPa 0,0 l/m 0 min 0 min 0 W/m 29,0 km/h (5 Bft) 97,87 %
06.06.2019 00:20 19,4 C 17,8 C 17,8 C 80 % 1004,4 hPa 0,0 l/m 0 min 0 min 0 W/m 38,6 km/h (5 Bft) 97,87 %
06.06.2019 00:22 19,3 C 17,8 C 17,8 C 80 % 1004,2 hPa 0,0 l/m 0 min 0 min 0 W/m 22,5 km/h (4 Bft) 95,74 %
06.06.2019 00:24 19,2 C 17,8 C 17,8 C 80 % 1004,3 hPa 0,0 l/m 0 min 0 min 0 W/m 19,3 km/h (3 Bft) 100,00 %
06.06.2019 00:26 19,1 C 17,8 C 17,8 C 80 % 1004,2 hPa 0,0 l/m 0 min 0 min 0 W/m 22,5 km/h (4 Bft) 100,00 %
06.06.2019 00:28 19,1 C 17,8 C 17,8 C 81 % 1004,2 hPa 0,0 l/m 0 min 0 min 0 W/m 29,0 km/h (5 Bft) 100,00 %
06.06.2019 00:30 19,0 C 18,3 C 18,3 C 81 % 1004,0 hPa 0,0 l/m 0 min 0 min 0 W/m 19,3 km/h (3 Bft) 97,87 %
06.06.2019 00:32 19,0 C 18,3 C 18,3 C 81 % 1003,7 hPa 0,0 l/m 0 min 2 min 0 W/m 25,7 km/h (4 Bft) 100,00 %
06.06.2019 00:34 19,0 C 16,1 C 16,7 C 82 % 1003,4 hPa 0,0 l/m 0 min 2 min 0 W/m 22,5 km/h (4 Bft) 100,00 %
06.06.2019 00:36 19,0 C 16,1 C 16,7 C 82 % 1003,4 hPa 0,0 l/m 0 min 2 min 0 W/m 29,0 km/h (5 Bft) 100,00 %
06.06.2019 00:38 18,9 C 16,1 C 16,1 C 82 % 1003,7 hPa 0,0 l/m 0 min 2 min 0 W/m 22,5 km/h (4 Bft) 100,00 %
06.06.2019 00:40 18,8 C 16,1 C 16,7 C 82 % 1003,8 hPa 0,0 l/m 0 min 2 min 0 W/m 16,1 km/h (3 Bft) 97,87 %
06.06.2019 00:42 18,8 C 16,1 C 16,7 C 83 % 1003,8 hPa 0,0 l/m 0 min 2 min 0 W/m 16,1 km/h (3 Bft) 100,00 %
06.06.2019 00:44 18,8 C 16,1 C 16,7 C 83 % 1003,5 hPa 0,0 l/m 0 min 2 min 0 W/m 12,9 km/h (3 Bft) 97,87 %
06.06.2019 00:46 18,7 C 16,1 C 16,1 C 83 % 1003,1 hPa 0,0 l/m 0 min 2 min 0 W/m 22,5 km/h (4 Bft) 97,87 %
06.06.2019 00:48 18,7 C 15,6 C 16,1 C 83 % 1003,4 hPa 0,0 l/m 0 min 2 min 0 W/m 16,1 km/h (3 Bft) 97,83 %
06.06.2019 00:50 18,6 C 15,6 C 16,1 C 84 % 1003,8 hPa 0,0 l/m 0 min 2 min 0 W/m 25,7 km/h (4 Bft) 97,87 %
06.06.2019 00:52 18,5 C 15,6 C 15,6 C 83 % 1004,1 hPa 0,0 l/m 0 min 2 min 0 W/m 16,1 km/h (3 Bft) 100,00 %
06.06.2019 00:54 18,4 C 15,6 C 15,6 C 83 % 1004,5 hPa 0,0 l/m 0 min 2 min 0 W/m 16,1 km/h (3 Bft) 95,74 %
06.06.2019 00:56 18,3 C 15,6 C 15,6 C 84 % 1004,8 hPa 0,0 l/m 0 min 2 min 0 W/m 22,5 km/h (4 Bft) 100,00 %
06.06.2019 00:58 18,3 C 15,6 C 15,6 C 84 % 1005,6 hPa 0,0 l/m 0 min 2 min 0 W/m 19,3 km/h (3 Bft) 100,00 %
06.06.2019 01:00 18,2 C 15,0 C 15,0 C 83 % 1005,9 hPa 0,0 l/m 0 min 2 min 0 W/m 19,3 km/h (3 Bft) 97,83 %
06.06.2019 01:02 18,1 C 14,4 C 15,0 C 83 % 1005,1 hPa 0,2 l/m 0 min 2 min 0 W/m 16,1 km/h (3 Bft) 95,74 %
06.06.2019 01:04 17,9 C 14,4 C 15,0 C 85 % 1004,5 hPa 1,2 l/m 0 min 2 min 0 W/m 9,7 km/h (2 Bft) 97,87 %
06.06.2019 01:06 17,8 C 14,4 C 14,4 C 86 % 1004,9 hPa 1,2 l/m 0 min 2 min 0 W/m 16,1 km/h (3 Bft) 97,87 %
06.06.2019 01:08 17,6 C 14,4 C 14,4 C 86 % 1005,3 hPa 0,4 l/m 0 min 2 min 0 W/m 16,1 km/h (3 Bft) 97,87 %
06.06.2019 01:10 17,4 C 14,4 C 14,4 C 87 % 1005,4 hPa 0,2 l/m 0 min 2 min 0 W/m 16,1 km/h (3 Bft) 97,87 %
06.06.2019 01:12 17,3 C 14,4 C 14,4 C 88 % 1005,2 hPa 0,2 l/m 0 min 2 min 0 W/m 16,1 km/h (3 Bft) 97,83 %
06.06.2019 01:14 17,2 C 14,4 C 14,4 C 88 % 1005,0 hPa 0,4 l/m 0 min 2 min 0 W/m 6,4 km/h (2 Bft) 95,74 %
06.06.2019 01:16 17,1 C 14,4 C 14,4 C 89 % 1004,9 hPa 0,4 l/m 0 min 2 min 0 W/m 6,4 km/h (2 Bft) 97,87 %
06.06.2019 01:18 16,9 C 14,4 C 14,4 C 89 % 1005,2 hPa 0,2 l/m 0 min 2 min 0 W/m 6,4 km/h (2 Bft) 97,87 %
06.06.2019 01:20 16,9 C 14,4 C 14,4 C 90 % 1005,7 hPa 0,2 l/m 0 min 2 min 0 W/m 6,4 km/h (2 Bft) 97,87 %
06.06.2019 01:22 16,8 C 14,4 C 14,4 C 90 % 1005,8 hPa 0,4 l/m 0 min 2 min 0 W/m 6,4 km/h (2 Bft) 97,87 %
06.06.2019 01:24 16,8 C 14,4 C 14,4 C 90 % 1005,5 hPa 0,4 l/m 0 min 2 min 0 W/m 3,2 km/h (1 Bft) 97,83 %
06.06.2019 01:26 16,8 C 14,4 C 14,4 C 90 % 1005,3 hPa 0,2 l/m 0 min 2 min 0 W/m 0,0 km/h (0 Bft) 95,74 %
06.06.2019 01:28 16,8 C 14,4 C 14,4 C 91 % 1005,2 hPa 0,4 l/m 0 min 2 min 0 W/m 0,0 km/h (0 Bft) 97,87 %
06.06.2019 01:30 16,7 C 14,4 C 14,4 C 91 % 1005,2 hPa 0,2 l/m 0 min 2 min 0 W/m 0,0 km/h (0 Bft) 93,62 %
06.06.2019 01:32 16,7 C 14,4 C 14,4 C 91 % 1005,3 hPa 0,2 l/m 0 min 2 min 0 W/m 0,0 km/h (0 Bft) 100,00 %
06.06.2019 01:34 16,7 C 14,4 C 14,4 C 91 % 1005,4 hPa 0,0 l/m 0 min 2 min 0 W/m 3,2 km/h (1 Bft) 97,87 %
06.06.2019 01:36 16,7 C 14,4 C 14,4 C 92 % 1005,4 hPa 0,0 l/m 0 min 2 min 0 W/m 3,2 km/h (1 Bft) 97,83 %
06.06.2019 01:38 16,6 C 14,4 C 14,4 C 92 % 1005,3 hPa 0,2 l/m 0 min 2 min 0 W/m 3,2 km/h (1 Bft) 97,87 %
06.06.2019 01:40 16,6 C 14,4 C 14,4 C 92 % 1005,2 hPa 0,0 l/m 0 min 2 min 0 W/m 3,2 km/h (1 Bft) 97,87 %
06.06.2019 01:42 16,6 C 14,4 C 14,4 C 92 % 1005,4 hPa 0,0 l/m 0 min 2 min 0 W/m 0,0 km/h (0 Bft) 97,87 %
06.06.2019 01:44 16,6 C 14,4 C 14,4 C 92 % 1005,4 hPa 0,0 l/m 0 min 2 min 0 W/m 0,0 km/h (0 Bft) 97,87 %
06.06.2019 01:46 16,5 C 14,4 C 14,4 C 92 % 1005,5 hPa 0,0 l/m 0 min 2 min 0 W/m 0,0 km/h (0 Bft) 95,74 %
06.06.2019 01:48 16,4 C 14,4 C 14,4 C 92 % 1005,5 hPa 0,0 l/m 0 min 0 min 0 W/m 0,0 km/h (0 Bft) 93,48 %
06.06.2019 01:50 16,4 C 14,4 C 13,9 C 92 % 1005,7 hPa 0,0 l/m 0 min 2 min 0 W/m 3,2 km/h (1 Bft) 97,87 %
06.06.2019 01:52 16,4 C 14,4 C 14,4 C 92 % 1005,8 hPa 0,2 l/m 0 min 2 min 0 W/m 3,2 km/h (1 Bft) 97,87 %
06.06.2019 01:54 16,3 C 14,4 C 14,4 C 92 % 1005,7 hPa 0,0 l/m 0 min 2 min 0 W/m 3,2 km/h (1 Bft) 97,87 %
06.06.2019 01:56 16,3 C 14,4 C 14,4 C 93 % 1005,6 hPa 0,0 l/m 0 min 2 min 0 W/m 0,0 km/h (0 Bft) 97,87 %
06.06.2019 01:58 16,3 C 14,4 C 14,4 C 93 % 1005,4 hPa 0,2 l/m 0 min 2 min 0 W/m 0,0 km/h (0 Bft) 97,87 %
06.06.2019 02:00 16,3 C 14,4 C 14,4 C 93 % 1005,3 hPa 0,0 l/m 0 min 2 min 0 W/m 0,0 km/h (0 Bft) 97,83 %
06.06.2019 02:02 16,3 C 14,4 C 14,4 C 93 % 1005,2 hPa 0,2 l/m 0 min 2 min 0 W/m 0,0 km/h (0 Bft) 97,87 %
06.06.2019 02:04 16,2 C 14,4 C 14,4 C 93 % 1005,2 hPa 0,2 l/m 0 min 2 min 0 W/m 0,0 km/h (0 Bft) 97,87 %
06.06.2019 02:06 16,2 C 14,4 C 14,4 C 93 % 1005,2 hPa 0,0 l/m 0 min 2 min 0 W/m 0,0 km/h (0 Bft) 95,74 %
06.06.2019 02:08 16,2 C 14,4 C 14,4 C 93 % 1005,3 hPa 0,0 l/m 0 min 2 min 0 W/m 0,0 km/h (0 Bft) 97,87 %
06.06.2019 02:10 16,2 C 14,4 C 14,4 C 93 % 1005,5 hPa 0,0 l/m 0 min 2 min 0 W/m 0,0 km/h (0 Bft) 97,83 %
06.06.2019 02:12 16,2 C 14,4 C 14,4 C 93 % 1005,7 hPa 0,2 l/m 0 min 2 min 0 W/m 0,0 km/h (0 Bft) 97,87 %
06.06.2019 02:14 16,2 C 14,4 C 14,4 C 93 % 1005,7 hPa 0,0 l/m 0 min 2 min 0 W/m 0,0 km/h (0 Bft) 97,87 %
06.06.2019 02:16 16,2 C 14,4 C 14,4 C 93 % 1005,7 hPa 0,2 l/m 0 min 2 min 0 W/m 6,4 km/h (2 Bft) 97,87 %
06.06.2019 02:18 16,2 C 14,4 C 14,4 C 93 % 1005,8 hPa 0,0 l/m 0 min 2 min 0 W/m 0,0 km/h (0 Bft) 97,87 %
06.06.2019 02:20 16,2 C 14,4 C 14,4 C 94 % 1005,7 hPa 0,0 l/m 0 min 2 min 0 W/m 3,2 km/h (1 Bft) 97,87 %
06.06.2019 02:22 16,2 C 14,4 C 14,4 C 94 % 1005,7 hPa 0,2 l/m 0 min 2 min 0 W/m 0,0 km/h (0 Bft) 97,83 %
06.06.2019 02:24 16,1 C 14,4 C 14,4 C 94 % 1005,7 hPa 0,0 l/m 0 min 2 min 0 W/m 0,0 km/h (0 Bft) 95,74 %
06.06.2019 02:26 16,1 C 14,4 C 14,4 C 94 % 1005,7 hPa 0,2 l/m 0 min 2 min 0 W/m 0,0 km/h (0 Bft) 97,87 %
06.06.2019 02:28 16,1 C 14,4 C 14,4 C 94 % 1005,9 hPa 0,0 l/m 0 min 2 min 0 W/m 0,0 km/h (0 Bft) 97,87 %
06.06.2019 02:30 16,1 C 14,4 C 14,4 C 94 % 1005,8 hPa 0,0 l/m 0 min 2 min 0 W/m 0,0 km/h (0 Bft) 97,87 %
06.06.2019 02:32 16,1 C 14,4 C 14,4 C 94 % 1005,7 hPa 0,2 l/m 0 min 2 min 0 W/m 9,7 km/h (2 Bft) 97,87 %
06.06.2019 02:34 16,1 C 14,4 C 14,4 C 94 % 1005,8 hPa 0,0 l/m 0 min 2 min 0 W/m 3,2 km/h (1 Bft) 97,83 %
06.06.2019 02:36 16,1 C 14,4 C 14,4 C 94 % 1005,8 hPa 0,2 l/m 0 min 2 min 0 W/m 0,0 km/h (0 Bft) 97,87 %
06.06.2019 02:38 16,1 C 14,4 C 14,4 C 94 % 1005,8 hPa 0,0 l/m 0 min 2 min 0 W/m 3,2 km/h (1 Bft) 97,87 %
06.06.2019 02:40 16,1 C 14,4 C 14,4 C 94 % 1005,9 hPa 0,2 l/m 0 min 2 min 0 W/m 3,2 km/h (1 Bft) 100,00 %
06.06.2019 02:42 16,0 C 14,4 C 13,9 C 95 % 1005,9 hPa 0,0 l/m 0 min 2 min 0 W/m 6,4 km/h (2 Bft) 95,74 %
06.06.2019 02:44 16,0 C 14,4 C 13,9 C 95 % 1005,9 hPa 0,0 l/m 0 min 2 min 0 W/m 3,2 km/h (1 Bft) 93,62 %
06.06.2019 02:46 16,0 C 14,4 C 13,9 C 95 % 1006,0 hPa 0,2 l/m 0 min 2 min 0 W/m 6,4 km/h (2 Bft) 100,00 %
06.06.2019 02:48 15,9 C 14,4 C 13,9 C 95 % 1005,8 hPa 0,0 l/m 0 min 2 min 0 W/m 0,0 km/h (0 Bft) 100,00 %
06.06.2019 02:50 15,9 C 14,4 C 13,9 C 95 % 1005,8 hPa 0,0 l/m 0 min 2 min 0 W/m 0,0 km/h (0 Bft) 100,00 %
06.06.2019 02:52 15,9 C 14,4 C 13,9 C 95 % 1005,9 hPa 0,0 l/m 0 min 2 min 0 W/m 0,0 km/h (0 Bft) 100,00 %
06.06.2019 02:54 15,9 C 14,4 C 13,9 C 95 % 1006,1 hPa 0,4 l/m 0 min 2 min 0 W/m 0,0 km/h (0 Bft) 100,00 %
06.06.2019 02:56 15,9 C 14,4 C 13,9 C 95 % 1006,0 hPa 0,2 l/m 0 min 2 min 0 W/m 3,2 km/h (1 Bft) 100,00 %
06.06.2019 02:58 15,9 C 14,4 C 13,9 C 95 % 1006,0 hPa 0,2 l/m 0 min 2 min 0 W/m 3,2 km/h (1 Bft) 100,00 %
06.06.2019 03:00 15,9 C 14,4 C 13,9 C 95 % 1005,8 hPa 0,2 l/m 0 min 2 min 0 W/m 3,2 km/h (1 Bft) 100,00 %
06.06.2019 03:02 15,8 C 14,4 C 14,4 C 95 % 1005,8 hPa 0,4 l/m 0 min 2 min 0 W/m 3,2 km/h (1 Bft) 97,87 %
06.06.2019 03:04 15,8 C 14,4 C 13,9 C 95 % 1006,1 hPa 0,2 l/m 0 min 2 min 0 W/m 9,7 km/h (2 Bft) 100,00 %
06.06.2019 03:06 15,8 C 14,4 C 13,9 C 95 % 1006,1 hPa 0,4 l/m 0 min 2 min 0 W/m 9,7 km/h (2 Bft) 97,87 %
06.06.2019 03:08 15,8 C 14,4 C 13,9 C 95 % 1006,0 hPa 0,2 l/m 0 min 2 min 0 W/m 3,2 km/h (1 Bft) 97,87 %
06.06.2019 03:10 15,8 C 14,4 C 13,9 C 95 % 1006,1 hPa 0,4 l/m 0 min 2 min 0 W/m 0,0 km/h (0 Bft) 97,83 %
06.06.2019 03:12 15,8 C 14,4 C 13,9 C 95 % 1006,1 hPa 0,4 l/m 0 min 2 min 0 W/m 3,2 km/h (1 Bft) 97,87 %
06.06.2019 03:14 15,8 C 14,4 C 13,9 C 95 % 1006,0 hPa 0,2 l/m 0 min 2 min 0 W/m 6,4 km/h (2 Bft) 97,87 %
06.06.2019 03:16 15,8 C 14,4 C 13,9 C 96 % 1006,0 hPa 0,2 l/m 0 min 2 min 0 W/m 3,2 km/h (1 Bft) 97,87 %
06.06.2019 03:18 15,8 C 14,4 C 13,9 C 96 % 1006,0 hPa 0,2 l/m 0 min 2 min 0 W/m 3,2 km/h (1 Bft) 95,74 %
06.06.2019 03:20 15,8 C 14,4 C 13,9 C 96 % 1005,9 hPa 0,0 l/m 0 min 2 min 0 W/m 0,0 km/h (0 Bft) 97,83 %
06.06.2019 03:22 15,7 C 14,4 C 13,9 C 96 % 1005,7 hPa 0,2 l/m 0 min 2 min 0 W/m 3,2 km/h (1 Bft) 97,87 %
06.06.2019 03:24 15,7 C 14,4 C 14,4 C 96 % 1005,6 hPa 0,2 l/m 0 min 2 min 0 W/m 0,0 km/h (0 Bft) 97,87 %
06.06.2019 03:26 15,7 C 14,4 C 14,4 C 96 % 1005,4 hPa 0,0 l/m 0 min 2 min 0 W/m 3,2 km/h (1 Bft) 95,74 %
06.06.2019 03:28 15,7 C 14,4 C 14,4 C 96 % 1005,3 hPa 0,0 l/m 0 min 2 min 0 W/m 3,2 km/h (1 Bft) 97,87 %
06.06.2019 03:30 15,7 C 14,4 C 14,4 C 96 % 1005,2 hPa 0,0 l/m 0 min 2 min 0 W/m 0,0 km/h (0 Bft) 95,74 %
06.06.2019 03:32 15,7 C 14,4 C 14,4 C 96 % 1005,1 hPa 0,0 l/m 0 min 2 min 0 W/m 0,0 km/h (0 Bft) 93,48 %
06.06.2019 03:34 15,7 C 14,4 C 14,4 C 96 % 1005,1 hPa 0,0 l/m 0 min 2 min 0 W/m 3,2 km/h (1 Bft) 95,74 %
06.06.2019 03:36 15,7 C 14,4 C 14,4 C 96 % 1005,0 hPa 0,0 l/m 0 min 2 min 0 W/m 0,0 km/h (0 Bft) 97,87 %
06.06.2019 03:38 15,7 C 14,4 C 14,4 C 96 % 1004,9 hPa 0,2 l/m 0 min 2 min 0 W/m 0,0 km/h (0 Bft) 97,87 %
06.06.2019 03:40 15,7 C 14,4 C 14,4 C 96 % 1004,9 hPa 0,0 l/m 0 min 2 min 0 W/m 0,0 km/h (0 Bft) 93,62 %
06.06.2019 03:42 15,7 C 14,4 C 14,4 C 96 % 1004,8 hPa 0,0 l/m 0 min 2 min 0 W/m 0,0 km/h (0 Bft) 97,87 %
06.06.2019 03:44 15,7 C 14,4 C 13,9 C 96 % 1004,8 hPa 0,0 l/m 0 min 2 min 0 W/m 0,0 km/h (0 Bft) 97,83 %
06.06.2019 03:46 15,7 C 14,4 C 13,9 C 96 % 1004,8 hPa 0,0 l/m 0 min 2 min 0 W/m 0,0 km/h (0 Bft) 97,87 %
06.06.2019 03:48 15,7 C 14,4 C 13,9 C 96 % 1004,8 hPa 0,0 l/m 0 min 2 min 0 W/m 0,0 km/h (0 Bft) 95,74 %
06.06.2019 03:50 15,7 C 14,4 C 13,9 C 96 % 1004,8 hPa 0,0 l/m 0 min 2 min 0 W/m 3,2 km/h (1 Bft) 95,74 %
06.06.2019 03:52 15,7 C 14,4 C 13,9 C 96 % 1004,9 hPa 0,2 l/m 0 min 2 min 0 W/m 3,2 km/h (1 Bft) 95,74 %
06.06.2019 03:54 15,7 C 14,4 C 14,4 C 96 % 1004,6 hPa 0,0 l/m 0 min 2 min 0 W/m 6,4 km/h (2 Bft) 93,62 %
06.06.2019 03:56 15,7 C 14,4 C 14,4 C 96 % 1004,2 hPa 0,0 l/m 0 min 2 min 0 W/m 0,0 km/h (0 Bft) 95,65 %
06.06.2019 03:58 15,7 C 14,4 C 14,4 C 96 % 1004,2 hPa 0,0 l/m 0 min 2 min 0 W/m 3,2 km/h (1 Bft) 95,74 %
06.06.2019 04:00 15,7 C 14,4 C 14,4 C 96 % 1004,4 hPa 0,0 l/m 0 min 2 min 0 W/m 3,2 km/h (1 Bft) 95,74 %
06.06.2019 04:06 15,7 C 14,4 C 13,9 C 96 % 1004,2 hPa 0,0 l/m 0 min 5 min 0 W/m 3,2 km/h (1 Bft) 100,00 %
06.06.2019 04:08 15,7 C 14,4 C 14,4 C 96 % 1004,2 hPa 0,0 l/m 0 min 2 min 0 W/m 0,0 km/h (0 Bft) 100,00 %
06.06.2019 04:10 15,7 C 14,4 C 14,4 C 96 % 1004,2 hPa 0,0 l/m 0 min 0 min 0 W/m 0,0 km/h (0 Bft) 97,87 %
06.06.2019 04:12 15,7 C 14,4 C 14,4 C 96 % 1004,1 hPa 0,0 l/m 0 min 2 min 0 W/m 0,0 km/h (0 Bft) 95,74 %
06.06.2019 04:14 15,7 C 14,4 C 14,4 C 96 % 1004,0 hPa 0,0 l/m 0 min 0 min 0 W/m 0,0 km/h (0 Bft) 95,74 %
06.06.2019 04:16 15,7 C 14,4 C 14,4 C 96 % 1004,0 hPa 0,0 l/m 0 min 0 min 0 W/m 0,0 km/h (0 Bft) 97,87 %
06.06.2019 04:18 15,7 C 14,4 C 14,4 C 96 % 1003,9 hPa 0,0 l/m 0 min 0 min 0 W/m 0,0 km/h (0 Bft) 97,87 %
06.06.2019 04:20 15,7 C 14,4 C 14,4 C 97 % 1004,0 hPa 0,0 l/m 0 min 0 min 0 W/m 0,0 km/h (0 Bft) 97,83 %
06.06.2019 04:22 15,7 C 14,4 C 14,4 C 97 % 1004,2 hPa 0,0 l/m 0 min 0 min 0 W/m 3,2 km/h (1 Bft) 95,74 %
06.06.2019 04:24 15,7 C 14,4 C 14,4 C 97 % 1004,5 hPa 0,0 l/m 0 min 0 min 0 W/m 3,2 km/h (1 Bft) 97,87 %
06.06.2019 04:26 15,8 C 14,4 C 14,4 C 97 % 1004,7 hPa 0,0 l/m 0 min 2 min 0 W/m 6,4 km/h (2 Bft) 97,87 %
06.06.2019 04:28 15,8 C 14,4 C 14,4 C 97 % 1004,9 hPa 0,0 l/m 0 min 2 min 0 W/m 6,4 km/h (2 Bft) 97,87 %
06.06.2019 04:30 15,8 C 14,4 C 14,4 C 97 % 1005,0 hPa 0,0 l/m 0 min 0 min 0 W/m 9,7 km/h (2 Bft) 95,65 %
06.06.2019 04:32 15,8 C 14,4 C 14,4 C 97 % 1005,0 hPa 0,0 l/m 0 min 0 min 0 W/m 6,4 km/h (2 Bft) 95,74 %
06.06.2019 04:34 15,8 C 14,4 C 14,4 C 97 % 1005,1 hPa 0,0 l/m 0 min 0 min 0 W/m 19,3 km/h (3 Bft) 95,74 %
06.06.2019 04:36 15,8 C 14,4 C 14,4 C 97 % 1005,1 hPa 0,0 l/m 0 min 0 min 0 W/m 12,9 km/h (3 Bft) 95,74 %
06.06.2019 04:38 15,8 C 13,9 C 14,4 C 97 % 1005,0 hPa 0,0 l/m 0 min 2 min 0 W/m 32,2 km/h (5 Bft) 97,87 %
06.06.2019 04:40 15,4 C 13,3 C 13,3 C 97 % 1005,1 hPa 0,0 l/m 0 min 2 min 0 W/m 22,5 km/h (4 Bft) 97,87 %
06.06.2019 04:42 15,1 C 12,8 C 12,8 C 96 % 1005,2 hPa 0,0 l/m 0 min 0 min 0 W/m 25,7 km/h (4 Bft) 95,65 %
06.06.2019 04:44 14,8 C 12,8 C 12,8 C 96 % 1005,5 hPa 0,0 l/m 0 min 0 min 0 W/m 35,4 km/h (5 Bft) 97,87 %
06.06.2019 04:46 14,6 C 12,2 C 12,2 C 96 % 1005,6 hPa 0,0 l/m 0 min 0 min 0 W/m 29,0 km/h (5 Bft) 97,87 %
06.06.2019 04:48 14,3 C 12,2 C 12,2 C 96 % 1005,6 hPa 0,0 l/m 0 min 0 min 0 W/m 16,1 km/h (3 Bft) 97,87 %
06.06.2019 04:50 14,2 C 12,2 C 12,2 C 96 % 1005,9 hPa 0,0 l/m 0 min 0 min 0 W/m 38,6 km/h (5 Bft) 97,87 %
06.06.2019 04:52 13,8 C 11,7 C 11,7 C 95 % 1005,9 hPa 0,0 l/m 0 min 0 min 0 W/m 25,7 km/h (4 Bft) 97,87 %
06.06.2019 04:54 13,6 C 11,7 C 11,7 C 95 % 1006,0 hPa 0,0 l/m 0 min 0 min 0 W/m 22,5 km/h (4 Bft) 97,83 %
06.06.2019 04:56 13,4 C 11,7 C 11,7 C 95 % 1006,0 hPa 0,0 l/m 0 min 0 min 0 W/m 25,7 km/h (4 Bft) 95,74 %
06.06.2019 04:58 13,3 C 11,7 C 11,7 C 95 % 1006,1 hPa 0,0 l/m 0 min 0 min 0 W/m 19,3 km/h (3 Bft) 97,87 %
06.06.2019 05:00 13,1 C 11,7 C 11,7 C 95 % 1006,4 hPa 0,0 l/m 0 min 0 min 0 W/m 22,5 km/h (4 Bft) 95,74 %
06.06.2019 05:02 13,0 C 11,1 C 11,7 C 95 % 1006,4 hPa 0,0 l/m 0 min 0 min 0 W/m 25,7 km/h (4 Bft) 97,87 %
06.06.2019 05:04 12,8 C 11,1 C 11,1 C 95 % 1006,4 hPa 0,0 l/m 0 min 0 min 0 W/m 25,7 km/h (4 Bft) 97,87 %
06.06.2019 05:05 12,7 C 11,1 C 11,1 C 95 % 1006,6 hPa 0,0 l/m 0 min 0 min 0 W/m 32,2 km/h (5 Bft) 100,00 %
06.06.2019 05:10 12,6 C 11,1 C 11,1 C 95 % 1006,7 hPa 0,0 l/m 0 min 0 min 0 W/m 19,3 km/h (3 Bft) 100,00 %
06.06.2019 05:15 12,5 C 11,1 C 11,1 C 96 % 1006,8 hPa 0,0 l/m 0 min 0 min 0 W/m 6,4 km/h (2 Bft) 96,61 %
06.06.2019 05:20 12,4 C 11,1 C 11,1 C 96 % 1007,0 hPa 0,0 l/m 0 min 0 min 0 W/m 22,5 km/h (4 Bft) 100,00 %
06.06.2019 05:25 12,3 C 11,1 C 11,1 C 96 % 1007,1 hPa 0,0 l/m 0 min 0 min 0 W/m 22,5 km/h (4 Bft) 100,00 %
06.06.2019 05:26 12,3 C 11,1 C 11,1 C 96 % 1007,1 hPa 0,0 l/m 0 min 0 min 0 W/m 12,9 km/h (3 Bft) 100,00 %
06.06.2019 05:28 12,2 C 11,1 C 11,1 C 96 % 1007,1 hPa 0,0 l/m 0 min 0 min 0 W/m 12,9 km/h (3 Bft) 100,00 %
06.06.2019 05:30 12,2 C 11,1 C 11,1 C 96 % 1007,1 hPa 0,0 l/m 0 min 0 min 0 W/m 29,0 km/h (5 Bft) 100,00 %
06.06.2019 05:32 12,2 C 11,1 C 11,1 C 96 % 1007,3 hPa 0,0 l/m 0 min 0 min 0 W/m 25,7 km/h (4 Bft) 100,00 %
06.06.2019 05:34 12,1 C 11,1 C 11,1 C 96 % 1007,4 hPa 0,0 l/m 0 min 0 min 0 W/m 19,3 km/h (3 Bft) 100,00 %
06.06.2019 05:36 12,1 C 11,1 C 11,1 C 96 % 1007,5 hPa 0,0 l/m 0 min 0 min 0 W/m 16,1 km/h (3 Bft) 100,00 %
06.06.2019 05:38 12,1 C 11,1 C 11,1 C 96 % 1007,6 hPa 0,0 l/m 0 min 0 min 0 W/m 9,7 km/h (2 Bft) 100,00 %
06.06.2019 05:40 12,1 C 11,1 C 11,1 C 96 % 1007,6 hPa 0,0 l/m 0 min 0 min 0 W/m 16,1 km/h (3 Bft) 100,00 %
06.06.2019 05:42 12,1 C 11,1 C 11,1 C 96 % 1007,6 hPa 0,0 l/m 0 min 0 min 0 W/m 16,1 km/h (3 Bft) 100,00 %
06.06.2019 05:44 12,0 C 11,1 C 11,1 C 96 % 1007,6 hPa 0,0 l/m 0 min 0 min 0 W/m 29,0 km/h (5 Bft) 100,00 %
06.06.2019 05:46 12,0 C 10,6 C 10,6 C 96 % 1007,6 hPa 0,0 l/m 0 min 0 min 0 W/m 19,3 km/h (3 Bft) 97,87 %
06.06.2019 05:48 12,0 C 11,1 C 11,1 C 96 % 1007,7 hPa 0,0 l/m 0 min 0 min 0 W/m 16,1 km/h (3 Bft) 100,00 %
06.06.2019 05:50 12,0 C 11,1 C 11,1 C 96 % 1007,8 hPa 0,0 l/m 0 min 0 min 0 W/m 12,9 km/h (3 Bft) 97,87 %
06.06.2019 05:52 11,9 C 11,1 C 11,1 C 96 % 1007,8 hPa 0,0 l/m 0 min 0 min 0 W/m 12,9 km/h (3 Bft) 97,87 %
06.06.2019 05:54 11,9 C 11,1 C 11,1 C 96 % 1007,8 hPa 0,0 l/m 0 min 0 min 0 W/m 19,3 km/h (3 Bft) 100,00 %
06.06.2019 05:56 11,9 C 11,1 C 10,6 C 96 % 1007,8 hPa 0,0 l/m 0 min 0 min 0 W/m 25,7 km/h (4 Bft) 100,00 %
06.06.2019 05:58 11,9 C 10,6 C 10,6 C 96 % 1007,9 hPa 0,0 l/m 0 min 0 min 0 W/m 16,1 km/h (3 Bft) 100,00 %
06.06.2019 06:00 11,9 C 10,6 C 10,6 C 96 % 1007,9 hPa 0,0 l/m 0 min 0 min 0 W/m 22,5 km/h (4 Bft) 97,87 %
06.06.2019 06:02 11,9 C 10,6 C 10,6 C 96 % 1007,9 hPa 0,0 l/m 0 min 0 min 0 W/m 19,3 km/h (3 Bft) 97,87 %
06.06.2019 06:04 11,9 C 10,6 C 10,6 C 96 % 1007,9 hPa 0,0 l/m 0 min 0 min 0 W/m 19,3 km/h (3 Bft) 100,00 %
06.06.2019 06:07 11,9 C 10,6 C 10,6 C 96 % 1008,0 hPa 0,0 l/m 0 min 0 min 0 W/m 22,5 km/h (4 Bft) 100,00 %
06.06.2019 06:08 11,9 C 11,1 C 10,6 C 96 % 1008,0 hPa 0,0 l/m 0 min 0 min 0 W/m 16,1 km/h (3 Bft) 100,00 %
06.06.2019 06:10 11,9 C 10,6 C 10,6 C 96 % 1008,0 hPa 0,0 l/m 0 min 0 min 0 W/m 22,5 km/h (4 Bft) 100,00 %
06.06.2019 06:12 11,8 C 10,6 C 10,6 C 96 % 1008,0 hPa 0,0 l/m 0 min 0 min 0 W/m 22,5 km/h (4 Bft) 100,00 %
06.06.2019 06:14 11,8 C 10,6 C 10,6 C 96 % 1008,2 hPa 0,0 l/m 0 min 0 min 0 W/m 12,9 km/h (3 Bft) 100,00 %
06.06.2019 06:16 11,8 C 10,6 C 10,6 C 96 % 1008,2 hPa 0,0 l/m 0 min 0 min 0 W/m 9,7 km/h (2 Bft) 100,00 %
06.06.2019 06:18 11,8 C 10,6 C 10,6 C 96 % 1008,3 hPa 0,0 l/m 0 min 0 min 0 W/m 16,1 km/h (3 Bft) 97,83 %
06.06.2019 06:20 11,8 C 11,1 C 11,1 C 97 % 1008,3 hPa 0,0 l/m 0 min 0 min 4 W/m 9,7 km/h (2 Bft) 100,00 %
06.06.2019 06:22 11,8 C 11,1 C 10,6 C 97 % 1008,4 hPa 0,0 l/m 0 min 0 min 5 W/m 12,9 km/h (3 Bft) 100,00 %
06.06.2019 06:24 11,8 C 11,1 C 10,6 C 97 % 1008,4 hPa 0,0 l/m 0 min 0 min 6 W/m 19,3 km/h (3 Bft) 97,87 %
06.06.2019 06:26 11,8 C 11,1 C 10,6 C 97 % 1008,4 hPa 0,0 l/m 0 min 0 min 7 W/m 22,5 km/h (4 Bft) 100,00 %
06.06.2019 06:28 11,8 C 11,1 C 10,6 C 97 % 1008,5 hPa 0,0 l/m 0 min 0 min 8 W/m 16,1 km/h (3 Bft) 97,87 %
06.06.2019 06:30 11,8 C 11,1 C 10,6 C 97 % 1008,5 hPa 0,0 l/m 0 min 0 min 9 W/m 9,7 km/h (2 Bft) 97,83 %
06.06.2019 06:32 11,8 C 10,6 C 10,6 C 97 % 1008,5 hPa 0,0 l/m 0 min 0 min 13 W/m 16,1 km/h (3 Bft) 100,00 %
06.06.2019 06:34 11,8 C 11,1 C 10,6 C 97 % 1008,6 hPa 0,0 l/m 0 min 0 min 16 W/m 9,7 km/h (2 Bft) 95,74 %
06.06.2019 06:36 11,8 C 11,1 C 10,6 C 97 % 1008,6 hPa 0,0 l/m 0 min 0 min 21 W/m 12,9 km/h (3 Bft) 95,74 %
06.06.2019 06:38 11,8 C 11,1 C 10,6 C 97 % 1008,7 hPa 0,0 l/m 0 min 0 min 26 W/m 9,7 km/h (2 Bft) 100,00 %
06.06.2019 06:40 11,8 C 11,1 C 11,1 C 97 % 1008,8 hPa 0,0 l/m 0 min 0 min 27 W/m 19,3 km/h (3 Bft) 95,74 %
06.06.2019 06:42 11,8 C 11,1 C 10,6 C 97 % 1008,9 hPa 0,0 l/m 0 min 0 min 25 W/m 19,3 km/h (3 Bft) 95,65 %
06.06.2019 06:44 11,8 C 11,1 C 11,1 C 97 % 1008,8 hPa 0,0 l/m 0 min 0 min 21 W/m 6,4 km/h (2 Bft) 95,74 %
06.06.2019 06:46 11,8 C 11,1 C 11,1 C 97 % 1008,8 hPa 0,0 l/m 0 min 0 min 25 W/m 6,4 km/h (2 Bft) 95,74 %
06.06.2019 06:48 11,8 C 11,1 C 10,6 C 97 % 1008,8 hPa 0,0 l/m 0 min 0 min 28 W/m 12,9 km/h (3 Bft) 91,49 %
06.06.2019 06:50 11,8 C 11,1 C 10,6 C 97 % 1008,9 hPa 0,0 l/m 0 min 0 min 32 W/m 12,9 km/h (3 Bft) 95,74 %
06.06.2019 06:52 11,8 C 11,1 C 11,1 C 97 % 1008,9 hPa 0,0 l/m 0 min 0 min 27 W/m 16,1 km/h (3 Bft) 95,74 %
06.06.2019 06:54 11,8 C 11,1 C 11,1 C 97 % 1008,9 hPa 0,0 l/m 0 min 0 min 26 W/m 16,1 km/h (3 Bft) 93,48 %
06.06.2019 06:56 11,8 C 11,1 C 11,1 C 97 % 1008,9 hPa 0,0 l/m 0 min 0 min 26 W/m 9,7 km/h (2 Bft) 93,62 %
06.06.2019 06:58 11,8 C 11,1 C 11,1 C 97 % 1009,0 hPa 0,0 l/m 0 min 0 min 28 W/m 12,9 km/h (3 Bft) 95,74 %
06.06.2019 07:00 11,8 C 11,1 C 11,1 C 97 % 1008,9 hPa 0,0 l/m 0 min 0 min 32 W/m 22,5 km/h (4 Bft) 95,74 %
06.06.2019 07:02 11,8 C 11,1 C 11,1 C 97 % 1009,0 hPa 0,0 l/m 0 min 0 min 38 W/m 9,7 km/h (2 Bft) 93,62 %
06.06.2019 07:04 11,8 C 11,1 C 11,1 C 97 % 1009,0 hPa 0,0 l/m 0 min 0 min 45 W/m 9,7 km/h (2 Bft) 97,87 %
06.06.2019 07:06 11,8 C 11,1 C 11,7 C 97 % 1009,0 hPa 0,0 l/m 0 min 0 min 50 W/m 16,1 km/h (3 Bft) 93,48 %
06.06.2019 07:08 11,8 C 11,1 C 11,1 C 97 % 1009,1 hPa 0,0 l/m 0 min 0 min 44 W/m 12,9 km/h (3 Bft) 95,74 %
06.06.2019 07:10 11,8 C 11,1 C 11,1 C 97 % 1009,2 hPa 0,0 l/m 0 min 0 min 46 W/m 19,3 km/h (3 Bft) 95,74 %
06.06.2019 07:12 11,8 C 11,1 C 11,1 C 96 % 1009,2 hPa 0,0 l/m 0 min 0 min 33 W/m 16,1 km/h (3 Bft) 95,74 %
06.06.2019 07:14 11,8 C 11,1 C 11,1 C 96 % 1009,3 hPa 0,0 l/m 0 min 0 min 26 W/m 16,1 km/h (3 Bft) 93,62 %
06.06.2019 07:16 11,8 C 11,1 C 11,1 C 96 % 1009,3 hPa 0,0 l/m 0 min 0 min 18 W/m 22,5 km/h (4 Bft) 91,30 %
06.06.2019 07:18 11,8 C 11,1 C 11,1 C 96 % 1009,4 hPa 0,0 l/m 0 min 0 min 22 W/m 22,5 km/h (4 Bft) 93,62 %
06.06.2019 07:20 11,8 C 11,1 C 11,1 C 96 % 1009,5 hPa 0,0 l/m 0 min 0 min 14 W/m 12,9 km/h (3 Bft) 93,62 %
06.06.2019 07:22 11,8 C 11,1 C 11,1 C 96 % 1009,8 hPa 0,0 l/m 0 min 0 min 10 W/m 22,5 km/h (4 Bft) 91,49 %
06.06.2019 07:24 11,8 C 10,6 C 11,1 C 96 % 1009,8 hPa 0,0 l/m 0 min 0 min 9 W/m 22,5 km/h (4 Bft) 91,49 %
06.06.2019 07:26 11,7 C 10,6 C 11,1 C 96 % 1009,8 hPa 0,0 l/m 0 min 0 min 7 W/m 12,9 km/h (3 Bft) 89,36 %
06.06.2019 07:28 11,7 C 10,6 C 10,6 C 96 % 1009,8 hPa 0,0 l/m 0 min 0 min 8 W/m 16,1 km/h (3 Bft) 89,13 %
06.06.2019 07:30 11,7 C 10,6 C 11,1 C 96 % 1009,8 hPa 0,0 l/m 0 min 0 min 13 W/m 16,1 km/h (3 Bft) 93,62 %
06.06.2019 07:32 11,7 C 10,6 C 11,1 C 96 % 1009,8 hPa 0,0 l/m 0 min 0 min 14 W/m 16,1 km/h (3 Bft) 97,87 %
06.06.2019 07:34 11,7 C 10,6 C 10,6 C 96 % 1009,8 hPa 0,0 l/m 0 min 0 min 12 W/m 16,1 km/h (3 Bft) 93,62 %
06.06.2019 07:36 11,7 C 10,6 C 10,6 C 96 % 1010,0 hPa 0,0 l/m 0 min 0 min 15 W/m 16,1 km/h (3 Bft) 95,74 %
06.06.2019 07:38 11,7 C 10,6 C 10,6 C 96 % 1010,0 hPa 0,0 l/m 0 min 0 min 25 W/m 22,5 km/h (4 Bft) 95,74 %
06.06.2019 07:40 11,6 C 10,6 C 10,6 C 96 % 1010,1 hPa 0,0 l/m 0 min 0 min 23 W/m 19,3 km/h (3 Bft) 97,83 %
06.06.2019 07:42 11,6 C 10,6 C 10,6 C 96 % 1010,1 hPa 0,0 l/m 0 min 0 min 33 W/m 19,3 km/h (3 Bft) 97,87 %
06.06.2019 07:44 11,6 C 10,6 C 11,1 C 96 % 1010,0 hPa 0,0 l/m 0 min 0 min 42 W/m 19,3 km/h (3 Bft) 97,87 %
06.06.2019 07:46 11,6 C 11,1 C 11,1 C 96 % 1010,0 hPa 0,0 l/m 0 min 0 min 48 W/m 9,7 km/h (2 Bft) 93,62 %
06.06.2019 07:48 11,6 C 11,1 C 11,1 C 96 % 1009,9 hPa 0,0 l/m 0 min 0 min 53 W/m 6,4 km/h (2 Bft) 97,87 %
06.06.2019 07:50 11,7 C 11,1 C 11,1 C 96 % 1009,9 hPa 0,0 l/m 0 min 0 min 61 W/m 9,7 km/h (2 Bft) 95,74 %
06.06.2019 07:52 11,7 C 11,1 C 11,1 C 96 % 1010,0 hPa 0,0 l/m 0 min 0 min 58 W/m 12,9 km/h (3 Bft) 97,83 %
06.06.2019 07:54 11,7 C 11,1 C 11,1 C 96 % 1010,1 hPa 0,0 l/m 0 min 0 min 53 W/m 3,2 km/h (1 Bft) 95,74 %
06.06.2019 07:56 11,7 C 11,1 C 11,1 C 96 % 1010,2 hPa 0,0 l/m 0 min 0 min 41 W/m 12,9 km/h (3 Bft) 97,87 %
06.06.2019 07:58 11,7 C 11,1 C 11,1 C 96 % 1010,4 hPa 0,0 l/m 0 min 0 min 31 W/m 9,7 km/h (2 Bft) 100,00 %
06.06.2019 08:00 11,7 C 11,1 C 11,1 C 96 % 1010,4 hPa 0,0 l/m 0 min 0 min 32 W/m 22,5 km/h (4 Bft) 100,00 %
06.06.2019 08:02 11,7 C 11,1 C 11,1 C 96 % 1010,5 hPa 0,0 l/m 0 min 0 min 27 W/m 16,1 km/h (3 Bft) 100,00 %
06.06.2019 08:04 11,7 C 11,1 C 11,1 C 95 % 1010,5 hPa 0,0 l/m 0 min 0 min 30 W/m 6,4 km/h (2 Bft) 100,00 %
06.06.2019 08:06 11,7 C 11,1 C 11,1 C 95 % 1010,6 hPa 0,0 l/m 0 min 0 min 32 W/m 12,9 km/h (3 Bft) 97,87 %
06.06.2019 08:08 11,7 C 11,1 C 11,1 C 95 % 1010,6 hPa 0,0 l/m 0 min 0 min 31 W/m 19,3 km/h (3 Bft) 100,00 %
06.06.2019 08:10 11,7 C 11,1 C 11,1 C 95 % 1010,6 hPa 0,0 l/m 0 min 0 min 37 W/m 22,5 km/h (4 Bft) 100,00 %
06.06.2019 08:12 11,7 C 11,1 C 11,1 C 95 % 1010,6 hPa 0,0 l/m 0 min 0 min 42 W/m 22,5 km/h (4 Bft) 100,00 %
06.06.2019 08:14 11,7 C 11,1 C 11,1 C 95 % 1010,5 hPa 0,0 l/m 0 min 0 min 46 W/m 12,9 km/h (3 Bft) 100,00 %
06.06.2019 08:16 11,7 C 11,7 C 11,1 C 95 % 1010,6 hPa 0,0 l/m 0 min 0 min 48 W/m 12,9 km/h (3 Bft) 100,00 %
06.06.2019 08:18 11,7 C 11,7 C 11,1 C 95 % 1010,5 hPa 0,0 l/m 0 min 0 min 53 W/m 9,7 km/h (2 Bft) 100,00 %
06.06.2019 08:20 11,7 C 11,7 C 11,1 C 95 % 1010,6 hPa 0,0 l/m 0 min 0 min 54 W/m 19,3 km/h (3 Bft) 95,74 %
06.06.2019 08:22 11,7 C 11,7 C 11,1 C 95 % 1010,6 hPa 0,0 l/m 0 min 0 min 52 W/m 3,2 km/h (1 Bft) 100,00 %
06.06.2019 08:24 11,7 C 11,7 C 11,1 C 95 % 1010,7 hPa 0,0 l/m 0 min 0 min 52 W/m 9,7 km/h (2 Bft) 100,00 %
06.06.2019 08:26 11,7 C 11,7 C 11,1 C 95 % 1010,8 hPa 0,0 l/m 0 min 0 min 55 W/m 3,2 km/h (1 Bft) 100,00 %
06.06.2019 08:28 11,8 C 11,7 C 11,1 C 95 % 1010,8 hPa 0,0 l/m 0 min 0 min 66 W/m 12,9 km/h (3 Bft) 100,00 %
06.06.2019 08:30 11,8 C 11,7 C 11,1 C 95 % 1011,0 hPa 0,0 l/m 0 min 0 min 66 W/m 9,7 km/h (2 Bft) 100,00 %
06.06.2019 08:32 11,8 C 11,7 C 11,1 C 95 % 1011,0 hPa 0,0 l/m 0 min 0 min 76 W/m 12,9 km/h (3 Bft) 100,00 %
06.06.2019 08:34 11,8 C 11,7 C 11,1 C 95 % 1011,1 hPa 0,0 l/m 0 min 0 min 62 W/m 6,4 km/h (2 Bft) 95,74 %
06.06.2019 08:36 11,8 C 11,7 C 11,1 C 95 % 1011,1 hPa 0,0 l/m 0 min 0 min 58 W/m 22,5 km/h (4 Bft) 100,00 %
06.06.2019 08:38 11,8 C 11,7 C 11,1 C 95 % 1011,1 hPa 0,0 l/m 0 min 0 min 69 W/m 9,7 km/h (2 Bft) 100,00 %
06.06.2019 08:40 11,8 C 11,7 C 11,1 C 95 % 1011,1 hPa 0,0 l/m 0 min 0 min 70 W/m 6,4 km/h (2 Bft) 100,00 %
06.06.2019 08:42 11,8 C 12,2 C 11,1 C 94 % 1011,1 hPa 0,0 l/m 0 min 0 min 73 W/m 12,9 km/h (3 Bft) 100,00 %
06.06.2019 08:44 11,9 C 12,2 C 11,1 C 94 % 1011,2 hPa 0,0 l/m 0 min 0 min 73 W/m 12,9 km/h (3 Bft) 100,00 %
06.06.2019 08:46 11,9 C 11,7 C 11,1 C 94 % 1011,3 hPa 0,0 l/m 0 min 0 min 65 W/m 9,7 km/h (2 Bft) 100,00 %
06.06.2019 08:48 11,9 C 11,7 C 11,1 C 94 % 1011,3 hPa 0,0 l/m 0 min 0 min 61 W/m 9,7 km/h (2 Bft) 100,00 %
06.06.2019 08:50 11,9 C 12,2 C 11,1 C 94 % 1011,3 hPa 0,0 l/m 0 min 0 min 76 W/m 6,4 km/h (2 Bft) 100,00 %
06.06.2019 08:52 11,9 C 12,2 C 11,1 C 94 % 1011,3 hPa 0,0 l/m 0 min 0 min 82 W/m 6,4 km/h (2 Bft) 100,00 %
06.06.2019 08:54 11,9 C 12,2 C 11,1 C 94 % 1011,3 hPa 0,0 l/m 0 min 0 min 102 W/m 12,9 km/h (3 Bft) 100,00 %
06.06.2019 08:56 11,9 C 12,2 C 11,7 C 94 % 1011,4 hPa 0,0 l/m 0 min 0 min 115 W/m 16,1 km/h (3 Bft) 97,87 %
06.06.2019 08:58 12,0 C 12,2 C 11,7 C 94 % 1011,3 hPa 0,0 l/m 0 min 0 min 113 W/m 6,4 km/h (2 Bft) 100,00 %
06.06.2019 09:00 12,0 C 12,2 C 11,7 C 93 % 1011,3 hPa 0,0 l/m 0 min 0 min 109 W/m 9,7 km/h (2 Bft) 100,00 %
06.06.2019 09:02 12,1 C 12,8 C 11,7 C 93 % 1011,4 hPa 0,0 l/m 0 min 0 min 115 W/m 6,4 km/h (2 Bft) 97,83 %
06.06.2019 09:04 12,1 C 12,8 C 11,7 C 93 % 1011,5 hPa 0,0 l/m 0 min 0 min 110 W/m 9,7 km/h (2 Bft) 100,00 %
06.06.2019 09:06 12,1 C 12,8 C 11,7 C 93 % 1011,5 hPa 0,0 l/m 0 min 0 min 96 W/m 12,9 km/h (3 Bft) 97,87 %
06.06.2019 09:08 12,1 C 12,8 C 11,7 C 93 % 1011,5 hPa 0,0 l/m 0 min 0 min 109 W/m 6,4 km/h (2 Bft) 100,00 %
06.06.2019 09:10 12,2 C 12,8 C 11,7 C 93 % 1011,6 hPa 0,0 l/m 0 min 0 min 113 W/m 12,9 km/h (3 Bft) 100,00 %
06.06.2019 09:12 12,2 C 12,8 C 11,7 C 93 % 1011,6 hPa 0,0 l/m 0 min 0 min 120 W/m 16,1 km/h (3 Bft) 100,00 %
06.06.2019 09:14 12,2 C 12,8 C 11,7 C 93 % 1011,7 hPa 0,0 l/m 0 min 0 min 115 W/m 9,7 km/h (2 Bft) 100,00 %
06.06.2019 09:16 12,2 C 12,8 C 11,7 C 93 % 1011,6 hPa 0,0 l/m 0 min 0 min 148 W/m 16,1 km/h (3 Bft) 100,00 %
06.06.2019 09:18 12,2 C 13,3 C 12,2 C 93 % 1011,6 hPa 0,0 l/m 0 min 0 min 188 W/m 16,1 km/h (3 Bft) 100,00 %
06.06.2019 09:20 12,3 C 13,9 C 12,2 C 93 % 1011,6 hPa 0,0 l/m 0 min 0 min 213 W/m 12,9 km/h (3 Bft) 97,87 %
06.06.2019 09:22 12,4 C 13,9 C 12,2 C 93 % 1011,6 hPa 0,0 l/m 0 min 0 min 175 W/m 12,9 km/h (3 Bft) 97,87 %
06.06.2019 09:24 12,4 C 13,9 C 12,8 C 92 % 1011,6 hPa 0,0 l/m 0 min 0 min 218 W/m 19,3 km/h (3 Bft) 100,00 %
06.06.2019 09:26 12,5 C 13,9 C 12,8 C 92 % 1011,6 hPa 0,0 l/m 0 min 0 min 214 W/m 12,9 km/h (3 Bft) 100,00 %
06.06.2019 09:28 12,6 C 13,9 C 12,8 C 92 % 1011,8 hPa 0,0 l/m 0 min 0 min 173 W/m 12,9 km/h (3 Bft) 100,00 %
06.06.2019 09:30 12,7 C 13,9 C 12,8 C 92 % 1011,8 hPa 0,0 l/m 0 min 0 min 188 W/m 22,5 km/h (4 Bft) 95,74 %
06.06.2019 09:32 12,7 C 13,3 C 12,8 C 92 % 1011,6 hPa 0,0 l/m 0 min 0 min 144 W/m 16,1 km/h (3 Bft) 95,74 %
06.06.2019 09:34 12,7 C 13,9 C 13,3 C 91 % 1011,7 hPa 0,0 l/m 0 min 0 min 209 W/m 12,9 km/h (3 Bft) 100,00 %
06.06.2019 09:36 12,8 C 14,4 C 13,3 C 91 % 1011,6 hPa 0,0 l/m 0 min 0 min 218 W/m 19,3 km/h (3 Bft) 97,83 %
06.06.2019 09:38 12,9 C 15,0 C 14,4 C 91 % 1011,7 hPa 0,0 l/m 0 min 0 min 218 W/m 16,1 km/h (3 Bft) 97,87 %
06.06.2019 09:40 13,1 C 16,7 C 15,6 C 90 % 1011,5 hPa 0,0 l/m 2 min 0 min 461 W/m 12,9 km/h (3 Bft) 95,74 %
06.06.2019 09:42 13,2 C 16,7 C 15,6 C 90 % 1011,6 hPa 0,0 l/m 2 min 0 min 396 W/m 12,9 km/h (3 Bft) 95,74 %
06.06.2019 09:44 13,4 C 18,3 C 17,2 C 90 % 1011,6 hPa 0,0 l/m 2 min 0 min 548 W/m 19,3 km/h (3 Bft) 95,74 %
06.06.2019 09:46 13,5 C 17,2 C 16,1 C 90 % 1011,5 hPa 0,0 l/m 2 min 0 min 626 W/m 16,1 km/h (3 Bft) 93,62 %
06.06.2019 09:48 13,6 C 16,1 C 15,6 C 89 % 1011,6 hPa 0,0 l/m 2 min 0 min 408 W/m 22,5 km/h (4 Bft) 93,62 %
06.06.2019 09:50 13,8 C 17,2 C 16,7 C 89 % 1011,6 hPa 0,0 l/m 0 min 0 min 232 W/m 12,9 km/h (3 Bft) 95,65 %
06.06.2019 09:52 13,9 C 17,8 C 17,2 C 88 % 1011,8 hPa 0,0 l/m 0 min 0 min 232 W/m 22,5 km/h (4 Bft) 93,62 %
06.06.2019 09:54 14,0 C 17,2 C 16,7 C 87 % 1011,6 hPa 0,0 l/m 0 min 0 min 302 W/m 25,7 km/h (4 Bft) 93,62 %
06.06.2019 09:56 14,1 C 18,3 C 17,8 C 86 % 1011,8 hPa 0,0 l/m 2 min 0 min 761 W/m 16,1 km/h (3 Bft) 93,62 %
06.06.2019 09:58 14,2 C 18,9 C 18,3 C 86 % 1011,8 hPa 0,0 l/m 2 min 0 min 807 W/m 16,1 km/h (3 Bft) 93,62 %
06.06.2019 10:00 14,3 C 18,9 C 18,9 C 85 % 1011,9 hPa 0,0 l/m 2 min 0 min 817 W/m 9,7 km/h (2 Bft) 95,74 %
06.06.2019 10:02 14,4 C 16,7 C 16,7 C 85 % 1012,1 hPa 0,0 l/m 2 min 0 min 659 W/m 16,1 km/h (3 Bft) 91,30 %
06.06.2019 10:04 14,4 C 18,3 C 17,2 C 85 % 1012,1 hPa 0,0 l/m 0 min 0 min 238 W/m 22,5 km/h (4 Bft) 93,62 %
06.06.2019 10:06 14,6 C 17,2 C 16,7 C 86 % 1012,2 hPa 0,0 l/m 0 min 0 min 232 W/m 19,3 km/h (3 Bft) 95,74 %
06.06.2019 10:08 14,6 C 17,2 C 16,7 C 85 % 1012,1 hPa 0,0 l/m 0 min 0 min 290 W/m 29,0 km/h (5 Bft) 93,62 %
06.06.2019 10:10 14,6 C 16,1 C 15,6 C 85 % 1012,2 hPa 0,0 l/m 0 min 0 min 260 W/m 22,5 km/h (4 Bft) 91,49 %
06.06.2019 10:12 14,6 C 15,6 C 15,0 C 84 % 1012,3 hPa 0,0 l/m 0 min 0 min 251 W/m 19,3 km/h (3 Bft) 93,48 %
06.06.2019 10:14 14,4 C 15,0 C 14,4 C 83 % 1012,3 hPa 0,0 l/m 0 min 0 min 230 W/m 12,9 km/h (3 Bft) 93,62 %
06.06.2019 10:16 14,4 C 15,0 C 14,4 C 83 % 1012,3 hPa 0,0 l/m 0 min 0 min 235 W/m 16,1 km/h (3 Bft) 93,62 %
06.06.2019 10:18 14,3 C 15,0 C 14,4 C 83 % 1012,4 hPa 0,0 l/m 0 min 0 min 282 W/m 16,1 km/h (3 Bft) 93,62 %
06.06.2019 10:20 14,3 C 15,0 C 14,4 C 84 % 1012,4 hPa 0,0 l/m 0 min 0 min 210 W/m 12,9 km/h (3 Bft) 93,48 %
06.06.2019 10:22 14,3 C 14,4 C 13,9 C 84 % 1012,5 hPa 0,0 l/m 0 min 0 min 225 W/m 12,9 km/h (3 Bft) 95,74 %
06.06.2019 10:24 14,2 C 14,4 C 13,9 C 83 % 1012,6 hPa 0,0 l/m 0 min 0 min 178 W/m 12,9 km/h (3 Bft) 95,65 %
06.06.2019 10:26 14,2 C 15,0 C 14,4 C 83 % 1012,5 hPa 0,0 l/m 0 min 0 min 212 W/m 12,9 km/h (3 Bft) 93,62 %
06.06.2019 10:28 14,2 C 17,8 C 16,7 C 84 % 1012,5 hPa 0,0 l/m 0 min 0 min 227 W/m 9,7 km/h (2 Bft) 91,49 %
06.06.2019 10:30 14,2 C 17,8 C 17,2 C 84 % 1012,5 hPa 0,0 l/m 0 min 0 min 227 W/m 25,7 km/h (4 Bft) 95,74 %
06.06.2019 10:32 14,4 C 17,8 C 16,7 C 83 % 1012,5 hPa 0,0 l/m 0 min 0 min 227 W/m 25,7 km/h (4 Bft) 95,74 %
06.06.2019 10:34 14,4 C 19,4 C 18,9 C 83 % 1012,4 hPa 0,0 l/m 0 min 0 min 270 W/m 12,9 km/h (3 Bft) 95,74 %
06.06.2019 10:36 14,7 C 20,0 C 19,4 C 83 % 1012,5 hPa 0,0 l/m 2 min 0 min 886 W/m 12,9 km/h (3 Bft) 93,48 %
06.06.2019 10:38 14,8 C 20,0 C 19,4 C 83 % 1012,6 hPa 0,0 l/m 2 min 0 min 496 W/m 16,1 km/h (3 Bft) 97,87 %
06.06.2019 10:40 14,9 C 18,9 C 17,8 C 83 % 1012,6 hPa 0,0 l/m 2 min 0 min 697 W/m 25,7 km/h (4 Bft) 97,87 %
06.06.2019 10:42 15,0 C 20,0 C 19,4 C 82 % 1012,6 hPa 0,0 l/m 2 min 0 min 717 W/m 19,3 km/h (3 Bft) 95,74 %
06.06.2019 10:44 15,1 C 20,6 C 20,0 C 82 % 1012,8 hPa 0,0 l/m 2 min 0 min 717 W/m 9,7 km/h (2 Bft) 97,87 %
06.06.2019 10:46 15,3 C 21,1 C 20,6 C 82 % 1012,6 hPa 0,0 l/m 2 min 0 min 727 W/m 12,9 km/h (3 Bft) 97,87 %
06.06.2019 10:48 15,4 C 22,2 C 21,7 C 82 % 1012,7 hPa 0,0 l/m 2 min 0 min 842 W/m 16,1 km/h (3 Bft) 100,00 %
06.06.2019 10:50 15,6 C 22,2 C 22,2 C 82 % 1012,8 hPa 0,0 l/m 2 min 0 min 820 W/m 9,7 km/h (2 Bft) 95,74 %
06.06.2019 10:52 15,7 C 21,1 C 21,7 C 81 % 1012,8 hPa 0,0 l/m 2 min 0 min 784 W/m 19,3 km/h (3 Bft) 100,00 %
06.06.2019 10:54 15,7 C 20,0 C 20,0 C 79 % 1012,7 hPa 0,0 l/m 2 min 0 min 475 W/m 16,1 km/h (3 Bft) 95,74 %
06.06.2019 10:56 15,7 C 20,6 C 20,6 C 78 % 1012,9 hPa 0,0 l/m 2 min 0 min 749 W/m 19,3 km/h (3 Bft) 97,87 %
06.06.2019 10:58 15,7 C 20,6 C 20,0 C 77 % 1012,6 hPa 0,0 l/m 2 min 0 min 820 W/m 16,1 km/h (3 Bft) 100,00 %
06.06.2019 11:00 15,8 C 21,1 C 21,1 C 77 % 1012,6 hPa 0,0 l/m 2 min 0 min 866 W/m 25,7 km/h (4 Bft) 100,00 %
06.06.2019 11:02 15,9 C 21,7 C 21,7 C 78 % 1012,6 hPa 0,0 l/m 2 min 0 min 896 W/m 9,7 km/h (2 Bft) 100,00 %
06.06.2019 11:04 16,0 C 20,6 C 21,1 C 78 % 1012,7 hPa 0,0 l/m 2 min 0 min 869 W/m 16,1 km/h (3 Bft) 100,00 %
06.06.2019 11:06 16,1 C 21,7 C 21,7 C 78 % 1012,7 hPa 0,0 l/m 2 min 0 min 846 W/m 9,7 km/h (2 Bft) 100,00 %
06.06.2019 11:08 16,2 C 22,8 C 22,8 C 78 % 1012,7 hPa 0,0 l/m 2 min 0 min 846 W/m 22,5 km/h (4 Bft) 100,00 %
06.06.2019 11:10 16,3 C 21,1 C 21,1 C 78 % 1012,8 hPa 0,0 l/m 2 min 0 min 846 W/m 9,7 km/h (2 Bft) 100,00 %
06.06.2019 11:12 16,4 C 21,1 C 21,1 C 77 % 1012,7 hPa 0,0 l/m 2 min 0 min 846 W/m 12,9 km/h (3 Bft) 100,00 %
06.06.2019 11:14 16,5 C 22,2 C 22,2 C 78 % 1012,7 hPa 0,0 l/m 2 min 0 min 915 W/m 16,1 km/h (3 Bft) 100,00 %
06.06.2019 11:16 16,6 C 22,2 C 21,7 C 77 % 1012,8 hPa 0,0 l/m 2 min 0 min 1030 W/m 9,7 km/h (2 Bft) 100,00 %
06.06.2019 11:18 16,7 C 22,8 C 22,8 C 77 % 1012,8 hPa 0,0 l/m 2 min 0 min 998 W/m 16,1 km/h (3 Bft) 100,00 %
06.06.2019 11:20 16,7 C 22,2 C 22,2 C 75 % 1012,9 hPa 0,0 l/m 2 min 0 min 1007 W/m 16,1 km/h (3 Bft) 100,00 %
06.06.2019 11:22 16,7 C 22,2 C 21,7 C 74 % 1013,0 hPa 0,0 l/m 2 min 0 min 1020 W/m 22,5 km/h (4 Bft) 100,00 %
06.06.2019 11:24 16,8 C 22,8 C 22,2 C 75 % 1013,0 hPa 0,0 l/m 2 min 0 min 1020 W/m 25,7 km/h (4 Bft) 100,00 %
06.06.2019 11:26 16,8 C 22,2 C 21,7 C 74 % 1013,0 hPa 0,0 l/m 2 min 0 min 1020 W/m 16,1 km/h (3 Bft) 97,87 %
06.06.2019 11:28 16,9 C 22,2 C 21,7 C 74 % 1013,1 hPa 0,0 l/m 2 min 0 min 1020 W/m 25,7 km/h (4 Bft) 97,87 %
06.06.2019 11:30 17,0 C 22,2 C 22,2 C 73 % 1013,1 hPa 0,0 l/m 2 min 0 min 1018 W/m 16,1 km/h (3 Bft) 100,00 %
06.06.2019 11:32 17,0 C 22,8 C 22,8 C 73 % 1013,0 hPa 0,0 l/m 2 min 0 min 945 W/m 19,3 km/h (3 Bft) 100,00 %
06.06.2019 11:34 17,1 C 23,3 C 23,3 C 72 % 1013,0 hPa 0,0 l/m 2 min 0 min 947 W/m 12,9 km/h (3 Bft) 100,00 %
06.06.2019 11:36 17,2 C 22,8 C 23,3 C 73 % 1013,0 hPa 0,0 l/m 2 min 0 min 947 W/m 25,7 km/h (4 Bft) 100,00 %
06.06.2019 11:38 17,2 C 22,2 C 22,2 C 72 % 1013,0 hPa 0,0 l/m 2 min 0 min 934 W/m 29,0 km/h (5 Bft) 100,00 %
06.06.2019 11:40 17,2 C 21,7 C 22,2 C 71 % 1013,1 hPa 0,0 l/m 2 min 0 min 922 W/m 22,5 km/h (4 Bft) 100,00 %
06.06.2019 11:42 17,2 C 22,2 C 22,8 C 71 % 1013,2 hPa 0,0 l/m 2 min 0 min 923 W/m 12,9 km/h (3 Bft) 100,00 %
06.06.2019 11:44 17,2 C 22,8 C 22,8 C 72 % 1013,1 hPa 0,0 l/m 2 min 0 min 967 W/m 12,9 km/h (3 Bft) 100,00 %
06.06.2019 11:46 17,2 C 21,1 C 21,1 C 71 % 1013,1 hPa 0,0 l/m 2 min 0 min 543 W/m 12,9 km/h (3 Bft) 100,00 %
06.06.2019 11:48 17,2 C 23,9 C 23,3 C 72 % 1013,1 hPa 0,0 l/m 2 min 0 min 491 W/m 16,1 km/h (3 Bft) 100,00 %
06.06.2019 11:50 17,2 C 22,8 C 22,2 C 71 % 1013,2 hPa 0,0 l/m 2 min 0 min 1021 W/m 25,7 km/h (4 Bft) 100,00 %
06.06.2019 11:52 17,3 C 23,9 C 23,9 C 73 % 1013,4 hPa 0,0 l/m 2 min 0 min 1029 W/m 16,1 km/h (3 Bft) 100,00 %
06.06.2019 11:54 17,4 C 23,9 C 24,4 C 71 % 1013,3 hPa 0,0 l/m 2 min 0 min 1019 W/m 19,3 km/h (3 Bft) 100,00 %
06.06.2019 11:56 17,5 C 23,3 C 23,9 C 71 % 1013,3 hPa 0,0 l/m 2 min 0 min 1028 W/m 19,3 km/h (3 Bft) 95,74 %
06.06.2019 11:58 17,6 C 23,3 C 23,9 C 70 % 1013,3 hPa 0,0 l/m 2 min 0 min 1058 W/m 22,5 km/h (4 Bft) 97,87 %
06.06.2019 12:00 17,6 C 22,8 C 22,8 C 70 % 1013,4 hPa 0,0 l/m 2 min 0 min 976 W/m 22,5 km/h (4 Bft) 97,87 %
06.06.2019 12:02 17,6 C 21,7 C 22,2 C 69 % 1013,3 hPa 0,0 l/m 2 min 0 min 835 W/m 25,7 km/h (4 Bft) 93,62 %
06.06.2019 12:04 17,6 C 22,2 C 22,8 C 70 % 1013,3 hPa 0,0 l/m 2 min 0 min 801 W/m 16,1 km/h (3 Bft) 97,83 %
06.06.2019 12:07 17,6 C 22,2 C 22,8 C 70 % 1013,2 hPa 0,0 l/m 3 min 0 min 1043 W/m 22,5 km/h (4 Bft) 97,18 %
06.06.2019 12:08 17,7 C 22,8 C 22,8 C 70 % 1013,2 hPa 0,0 l/m 1 min 0 min 1111 W/m 16,1 km/h (3 Bft) 100,00 %
06.06.2019 12:10 17,6 C 21,7 C 21,7 C 69 % 1013,4 hPa 0,0 l/m 2 min 0 min 1079 W/m 9,7 km/h (2 Bft) 97,87 %
06.06.2019 12:12 17,7 C 21,7 C 21,7 C 71 % 1013,4 hPa 0,0 l/m 2 min 0 min 972 W/m 9,7 km/h (2 Bft) 97,87 %
06.06.2019 12:14 17,7 C 22,2 C 22,8 C 71 % 1013,4 hPa 0,0 l/m 2 min 0 min 908 W/m 16,1 km/h (3 Bft) 97,87 %
06.06.2019 12:16 17,8 C 22,8 C 22,8 C 71 % 1013,5 hPa 0,0 l/m 2 min 0 min 786 W/m 12,9 km/h (3 Bft) 97,83 %
06.06.2019 12:18 17,9 C 23,3 C 23,3 C 72 % 1013,4 hPa 0,0 l/m 2 min 0 min 801 W/m 9,7 km/h (2 Bft) 97,87 %
06.06.2019 12:20 18,0 C 24,4 C 23,9 C 71 % 1013,4 hPa 0,0 l/m 2 min 0 min 860 W/m 16,1 km/h (3 Bft) 97,87 %
06.06.2019 12:22 18,1 C 24,4 C 23,9 C 70 % 1013,4 hPa 0,0 l/m 2 min 0 min 870 W/m 9,7 km/h (2 Bft) 97,87 %
06.06.2019 12:24 18,1 C 23,9 C 23,9 C 70 % 1013,4 hPa 0,0 l/m 2 min 0 min 828 W/m 19,3 km/h (3 Bft) 97,87 %
06.06.2019 12:26 18,2 C 23,3 C 23,3 C 70 % 1013,4 hPa 0,0 l/m 2 min 0 min 762 W/m 9,7 km/h (2 Bft) 95,74 %
06.06.2019 12:28 18,3 C 22,2 C 22,8 C 69 % 1013,4 hPa 0,0 l/m 2 min 0 min 600 W/m 16,1 km/h (3 Bft) 97,83 %
06.06.2019 12:30 18,3 C 21,7 C 22,2 C 67 % 1013,4 hPa 0,0 l/m 2 min 0 min 591 W/m 9,7 km/h (2 Bft) 95,74 %
06.06.2019 12:32 18,4 C 22,2 C 22,8 C 68 % 1013,4 hPa 0,0 l/m 2 min 0 min 679 W/m 12,9 km/h (3 Bft) 100,00 %
06.06.2019 12:34 18,5 C 22,8 C 23,3 C 69 % 1013,4 hPa 0,0 l/m 2 min 0 min 760 W/m 12,9 km/h (3 Bft) 97,87 %
06.06.2019 12:36 18,6 C 23,9 C 24,4 C 67 % 1013,5 hPa 0,0 l/m 2 min 0 min 873 W/m 12,9 km/h (3 Bft) 97,87 %
06.06.2019 12:38 18,7 C 24,4 C 24,4 C 70 % 1013,5 hPa 0,0 l/m 2 min 0 min 878 W/m 12,9 km/h (3 Bft) 97,87 %
06.06.2019 12:40 18,8 C 25,0 C 25,0 C 69 % 1013,6 hPa 0,0 l/m 2 min 0 min 825 W/m 16,1 km/h (3 Bft) 97,83 %
06.06.2019 12:42 18,9 C 23,9 C 24,4 C 68 % 1013,6 hPa 0,0 l/m 2 min 0 min 793 W/m 12,9 km/h (3 Bft) 97,87 %
06.06.2019 12:44 18,9 C 24,4 C 24,4 C 67 % 1013,6 hPa 0,0 l/m 2 min 0 min 821 W/m 12,9 km/h (3 Bft) 93,62 %
06.06.2019 12:46 19,1 C 23,9 C 24,4 C 68 % 1013,5 hPa 0,0 l/m 2 min 0 min 775 W/m 9,7 km/h (2 Bft) 97,87 %
06.06.2019 12:48 19,1 C 23,9 C 24,4 C 68 % 1013,6 hPa 0,0 l/m 2 min 0 min 816 W/m 9,7 km/h (2 Bft) 97,87 %
06.06.2019 12:50 19,2 C 23,9 C 24,4 C 66 % 1013,7 hPa 0,0 l/m 2 min 0 min 858 W/m 9,7 km/h (2 Bft) 97,87 %
06.06.2019 12:52 19,2 C 25,0 C 25,6 C 67 % 1013,7 hPa 0,0 l/m 2 min 0 min 802 W/m 16,1 km/h (3 Bft) 97,83 %
06.06.2019 12:54 19,3 C 25,6 C 25,6 C 66 % 1013,7 hPa 0,0 l/m 2 min 0 min 891 W/m 16,1 km/h (3 Bft) 95,74 %
06.06.2019 12:56 19,4 C 26,1 C 26,1 C 68 % 1013,6 hPa 0,0 l/m 2 min 0 min 912 W/m 9,7 km/h (2 Bft) 97,87 %
06.06.2019 12:58 19,6 C 23,3 C 23,9 C 65 % 1013,7 hPa 0,0 l/m 2 min 0 min 797 W/m 9,7 km/h (2 Bft) 97,87 %
06.06.2019 13:00 19,5 C 21,7 C 21,7 C 65 % 1013,7 hPa 0,0 l/m 2 min 0 min 465 W/m 16,1 km/h (3 Bft) 97,87 %
06.06.2019 13:02 19,4 C 20,6 C 21,1 C 65 % 1013,7 hPa 0,0 l/m 0 min 0 min 289 W/m 6,4 km/h (2 Bft) 95,74 %
06.06.2019 13:04 19,4 C 19,4 C 20,0 C 64 % 1013,8 hPa 0,0 l/m 0 min 0 min 316 W/m 16,1 km/h (3 Bft) 97,83 %
06.06.2019 13:06 19,3 C 19,4 C 20,0 C 63 % 1013,8 hPa 0,0 l/m 0 min 0 min 370 W/m 12,9 km/h (3 Bft) 97,87 %
06.06.2019 13:08 19,2 C 20,6 C 20,6 C 64 % 1013,8 hPa 0,0 l/m 2 min 0 min 552 W/m 6,4 km/h (2 Bft) 97,87 %
06.06.2019 13:10 19,2 C 22,2 C 21,7 C 65 % 1013,9 hPa 0,0 l/m 2 min 0 min 723 W/m 16,1 km/h (3 Bft) 97,87 %
06.06.2019 13:12 19,2 C 21,1 C 21,7 C 63 % 1013,8 hPa 0,0 l/m 2 min 0 min 777 W/m 25,7 km/h (4 Bft) 93,62 %
06.06.2019 13:14 19,1 C 22,2 C 22,2 C 63 % 1013,9 hPa 0,0 l/m 2 min 0 min 719 W/m 19,3 km/h (3 Bft) 97,83 %
06.06.2019 13:16 19,1 C 22,2 C 22,2 C 64 % 1013,9 hPa 0,0 l/m 2 min 0 min 770 W/m 16,1 km/h (3 Bft) 95,74 %
06.06.2019 13:18 19,1 C 22,2 C 22,2 C 65 % 1013,9 hPa 0,0 l/m 2 min 0 min 613 W/m 12,9 km/h (3 Bft) 97,87 %
06.06.2019 13:20 19,1 C 21,7 C 21,7 C 65 % 1013,9 hPa 0,0 l/m 2 min 0 min 539 W/m 16,1 km/h (3 Bft) 97,87 %
06.06.2019 13:22 19,0 C 20,0 C 20,0 C 63 % 1014,0 hPa 0,0 l/m 2 min 0 min 461 W/m 32,2 km/h (5 Bft) 97,87 %
06.06.2019 13:24 18,9 C 19,4 C 19,4 C 63 % 1014,0 hPa 0,0 l/m 2 min 0 min 458 W/m 16,1 km/h (3 Bft) 100,00 %
06.06.2019 13:26 18,8 C 19,4 C 20,0 C 64 % 1014,0 hPa 0,0 l/m 2 min 0 min 458 W/m 9,7 km/h (2 Bft) 100,00 %
06.06.2019 13:28 18,8 C 19,4 C 19,4 C 65 % 1014,0 hPa 0,0 l/m 0 min 0 min 426 W/m 12,9 km/h (3 Bft) 97,87 %
06.06.2019 13:30 18,7 C 20,0 C 19,4 C 65 % 1014,1 hPa 0,0 l/m 0 min 0 min 418 W/m 12,9 km/h (3 Bft) 100,00 %
06.06.2019 13:32 18,7 C 20,0 C 19,4 C 65 % 1014,1 hPa 0,0 l/m 0 min 0 min 406 W/m 16,1 km/h (3 Bft) 100,00 %
06.06.2019 13:34 18,7 C 20,0 C 19,4 C 66 % 1014,1 hPa 0,0 l/m 0 min 0 min 387 W/m 6,4 km/h (2 Bft) 100,00 %
06.06.2019 13:36 18,7 C 20,0 C 19,4 C 65 % 1014,1 hPa 0,0 l/m 0 min 0 min 386 W/m 9,7 km/h (2 Bft) 97,87 %
06.06.2019 13:38 18,6 C 20,0 C 18,9 C 65 % 1014,1 hPa 0,0 l/m 0 min 0 min 400 W/m 16,1 km/h (3 Bft) 97,83 %
06.06.2019 13:40 18,6 C 20,0 C 18,9 C 64 % 1014,2 hPa 0,0 l/m 0 min 0 min 419 W/m 16,1 km/h (3 Bft) 100,00 %
06.06.2019 13:42 18,5 C 19,4 C 18,9 C 65 % 1014,2 hPa 0,0 l/m 0 min 0 min 368 W/m 22,5 km/h (4 Bft) 100,00 %
06.06.2019 13:44 18,5 C 19,4 C 18,9 C 65 % 1014,2 hPa 0,0 l/m 0 min 0 min 369 W/m 12,9 km/h (3 Bft) 100,00 %
06.06.2019 13:46 18,4 C 19,4 C 18,9 C 65 % 1014,2 hPa 0,0 l/m 0 min 0 min 413 W/m 9,7 km/h (2 Bft) 100,00 %
06.06.2019 13:48 18,4 C 20,0 C 19,4 C 66 % 1014,2 hPa 0,0 l/m 2 min 0 min 498 W/m 9,7 km/h (2 Bft) 100,00 %
06.06.2019 13:50 18,4 C 20,0 C 19,4 C 65 % 1014,2 hPa 0,0 l/m 2 min 0 min 464 W/m 16,1 km/h (3 Bft) 100,00 %
06.06.2019 13:52 18,4 C 20,0 C 20,0 C 66 % 1014,2 hPa 0,0 l/m 2 min 0 min 488 W/m 12,9 km/h (3 Bft) 100,00 %
06.06.2019 13:54 18,5 C 20,0 C 20,0 C 67 % 1014,1 hPa 0,0 l/m 0 min 0 min 452 W/m 6,4 km/h (2 Bft) 97,87 %
06.06.2019 13:56 18,6 C 20,6 C 20,0 C 68 % 1014,1 hPa 0,0 l/m 2 min 0 min 457 W/m 6,4 km/h (2 Bft) 97,87 %
06.06.2019 13:58 18,6 C 20,6 C 19,4 C 65 % 1014,2 hPa 0,0 l/m 2 min 0 min 465 W/m 16,1 km/h (3 Bft) 100,00 %
06.06.2019 14:00 18,6 C 20,0 C 19,4 C 65 % 1014,2 hPa 0,0 l/m 2 min 0 min 465 W/m 19,3 km/h (3 Bft) 100,00 %
06.06.2019 14:02 18,5 C 20,0 C 19,4 C 64 % 1014,2 hPa 0,0 l/m 0 min 0 min 445 W/m 6,4 km/h (2 Bft) 97,83 %
06.06.2019 14:04 18,6 C 20,0 C 19,4 C 65 % 1014,2 hPa 0,0 l/m 0 min 0 min 430 W/m 12,9 km/h (3 Bft) 100,00 %
06.06.2019 14:06 18,6 C 20,0 C 19,4 C 66 % 1014,2 hPa 0,0 l/m 0 min 0 min 437 W/m 9,7 km/h (2 Bft) 95,74 %
06.06.2019 14:08 18,6 C 20,0 C 19,4 C 66 % 1014,3 hPa 0,0 l/m 0 min 0 min 446 W/m 9,7 km/h (2 Bft) 97,87 %
06.06.2019 14:10 18,6 C 20,0 C 19,4 C 66 % 1014,3 hPa 0,0 l/m 0 min 0 min 430 W/m 19,3 km/h (3 Bft) 97,87 %
06.06.2019 14:12 18,6 C 20,0 C 19,4 C 65 % 1014,3 hPa 0,0 l/m 2 min 0 min 457 W/m 6,4 km/h (2 Bft) 100,00 %
06.06.2019 14:14 18,5 C 20,0 C 19,4 C 64 % 1014,3 hPa 0,0 l/m 2 min 0 min 470 W/m 16,1 km/h (3 Bft) 100,00 %
06.06.2019 14:16 18,5 C 20,0 C 20,0 C 64 % 1014,3 hPa 0,0 l/m 2 min 0 min 510 W/m 9,7 km/h (2 Bft) 97,87 %
06.06.2019 14:18 18,5 C 20,0 C 19,4 C 64 % 1014,3 hPa 0,0 l/m 2 min 0 min 457 W/m 16,1 km/h (3 Bft) 95,74 %
06.06.2019 14:20 18,5 C 20,0 C 19,4 C 64 % 1014,3 hPa 0,0 l/m 2 min 0 min 465 W/m 16,1 km/h (3 Bft) 95,74 %
06.06.2019 14:22 18,5 C 20,6 C 20,0 C 64 % 1014,3 hPa 0,0 l/m 2 min 0 min 562 W/m 19,3 km/h (3 Bft) 95,74 %
06.06.2019 14:24 18,5 C 21,1 C 20,6 C 64 % 1014,3 hPa 0,0 l/m 2 min 0 min 716 W/m 19,3 km/h (3 Bft) 97,83 %
06.06.2019 14:26 18,5 C 21,1 C 21,1 C 62 % 1014,4 hPa 0,0 l/m 2 min 0 min 804 W/m 19,3 km/h (3 Bft) 97,87 %
06.06.2019 14:28 18,6 C 21,1 C 21,1 C 64 % 1014,5 hPa 0,0 l/m 2 min 0 min 783 W/m 16,1 km/h (3 Bft) 95,74 %
06.06.2019 14:30 18,6 C 21,7 C 21,1 C 64 % 1014,4 hPa 0,0 l/m 2 min 0 min 758 W/m 9,7 km/h (2 Bft) 95,74 %
06.06.2019 14:32 18,7 C 20,6 C 20,0 C 63 % 1014,4 hPa 0,0 l/m 2 min 0 min 573 W/m 16,1 km/h (3 Bft) 95,74 %
06.06.2019 14:34 18,7 C 20,6 C 20,0 C 64 % 1014,4 hPa 0,0 l/m 2 min 0 min 463 W/m 9,7 km/h (2 Bft) 95,74 %
06.06.2019 14:36 18,7 C 20,6 C 20,0 C 63 % 1014,4 hPa 0,0 l/m 0 min 0 min 430 W/m 12,9 km/h (3 Bft) 95,74 %
06.06.2019 14:38 18,7 C 20,6 C 20,0 C 64 % 1014,4 hPa 0,0 l/m 0 min 0 min 419 W/m 9,7 km/h (2 Bft) 95,65 %
06.06.2019 14:40 18,7 C 20,6 C 20,0 C 64 % 1014,5 hPa 0,0 l/m 0 min 0 min 440 W/m 12,9 km/h (3 Bft) 95,74 %
06.06.2019 14:42 18,8 C 20,6 C 20,0 C 64 % 1014,6 hPa 0,0 l/m 2 min 0 min 455 W/m 9,7 km/h (2 Bft) 95,74 %
06.06.2019 14:44 18,8 C 20,6 C 20,0 C 61 % 1014,6 hPa 0,0 l/m 2 min 0 min 450 W/m 6,4 km/h (2 Bft) 95,74 %
06.06.2019 14:46 18,8 C 20,6 C 20,0 C 61 % 1014,6 hPa 0,0 l/m 2 min 0 min 454 W/m 9,7 km/h (2 Bft) 95,74 %
06.06.2019 14:48 18,8 C 21,1 C 19,4 C 61 % 1014,7 hPa 0,0 l/m 2 min 0 min 467 W/m 9,7 km/h (2 Bft) 95,65 %
06.06.2019 14:50 18,8 C 21,1 C 20,0 C 61 % 1014,6 hPa 0,0 l/m 2 min 0 min 506 W/m 9,7 km/h (2 Bft) 93,62 %
06.06.2019 14:52 18,9 C 21,7 C 20,0 C 63 % 1014,7 hPa 0,0 l/m 2 min 0 min 529 W/m 12,9 km/h (3 Bft) 95,74 %
06.06.2019 14:54 18,9 C 21,1 C 20,0 C 62 % 1014,8 hPa 0,0 l/m 2 min 0 min 542 W/m 22,5 km/h (4 Bft) 95,74 %
06.06.2019 14:56 18,9 C 21,1 C 20,0 C 63 % 1014,7 hPa 0,0 l/m 2 min 0 min 642 W/m 12,9 km/h (3 Bft) 95,74 %
06.06.2019 14:58 19,1 C 21,7 C 20,0 C 65 % 1014,7 hPa 0,0 l/m 2 min 0 min 654 W/m 6,4 km/h (2 Bft) 95,74 %
06.06.2019 15:00 19,1 C 22,2 C 20,0 C 64 % 1014,6 hPa 0,0 l/m 2 min 0 min 654 W/m 9,7 km/h (2 Bft) 97,83 %
06.06.2019 15:02 19,2 C 22,8 C 20,0 C 63 % 1014,6 hPa 0,0 l/m 2 min 0 min 651 W/m 9,7 km/h (2 Bft) 97,87 %
06.06.2019 15:04 19,2 C 22,8 C 20,6 C 64 % 1014,5 hPa 0,0 l/m 2 min 0 min 603 W/m 6,4 km/h (2 Bft) 95,74 %
06.06.2019 15:06 19,3 C 22,2 C 20,0 C 64 % 1014,5 hPa 0,0 l/m 2 min 0 min 553 W/m 6,4 km/h (2 Bft) 97,87 %
06.06.2019 15:08 19,4 C 21,7 C 20,0 C 65 % 1014,5 hPa 0,0 l/m 2 min 0 min 478 W/m 6,4 km/h (2 Bft) 97,87 %
06.06.2019 15:10 19,4 C 21,1 C 19,4 C 65 % 1014,6 hPa 0,0 l/m 0 min 0 min 397 W/m 6,4 km/h (2 Bft) 97,87 %
06.06.2019 15:12 19,4 C 21,1 C 19,4 C 64 % 1014,6 hPa 0,0 l/m 0 min 0 min 386 W/m 9,7 km/h (2 Bft) 97,83 %
06.06.2019 15:14 19,4 C 21,1 C 19,4 C 62 % 1014,6 hPa 0,0 l/m 2 min 0 min 429 W/m 9,7 km/h (2 Bft) 95,74 %
06.06.2019 15:16 19,5 C 21,7 C 19,4 C 63 % 1014,6 hPa 0,0 l/m 2 min 0 min 480 W/m 9,7 km/h (2 Bft) 97,87 %
06.06.2019 15:18 19,5 C 21,1 C 19,4 C 60 % 1014,6 hPa 0,0 l/m 2 min 0 min 490 W/m 9,7 km/h (2 Bft) 97,87 %
06.06.2019 15:20 19,5 C 21,7 C 20,0 C 61 % 1014,6 hPa 0,0 l/m 2 min 0 min 574 W/m 6,4 km/h (2 Bft) 97,87 %
06.06.2019 15:22 19,6 C 21,7 C 20,0 C 63 % 1014,6 hPa 0,0 l/m 2 min 0 min 500 W/m 9,7 km/h (2 Bft) 97,87 %
06.06.2019 15:24 19,5 C 21,1 C 20,0 C 61 % 1014,7 hPa 0,0 l/m 2 min 0 min 514 W/m 16,1 km/h (3 Bft) 97,83 %
06.06.2019 15:26 19,5 C 21,7 C 20,0 C 60 % 1014,6 hPa 0,0 l/m 2 min 0 min 534 W/m 16,1 km/h (3 Bft) 97,87 %
06.06.2019 15:28 19,5 C 21,1 C 19,4 C 59 % 1014,7 hPa 0,0 l/m 2 min 0 min 525 W/m 19,3 km/h (3 Bft) 97,87 %
06.06.2019 15:30 19,5 C 21,1 C 19,4 C 59 % 1014,6 hPa 0,0 l/m 2 min 0 min 546 W/m 9,7 km/h (2 Bft) 97,87 %
06.06.2019 15:32 19,6 C 22,2 C 19,4 C 62 % 1014,6 hPa 0,0 l/m 2 min 0 min 569 W/m 6,4 km/h (2 Bft) 95,74 %
06.06.2019 15:34 19,6 C 21,7 C 20,0 C 61 % 1014,7 hPa 0,0 l/m 2 min 0 min 614 W/m 9,7 km/h (2 Bft) 93,62 %
06.06.2019 15:36 19,6 C 21,1 C 19,4 C 59 % 1014,7 hPa 0,0 l/m 2 min 0 min 550 W/m 6,4 km/h (2 Bft) 93,48 %
06.06.2019 15:38 19,7 C 21,7 C 19,4 C 61 % 1014,7 hPa 0,0 l/m 2 min 0 min 499 W/m 6,4 km/h (2 Bft) 97,87 %
06.06.2019 15:40 19,7 C 21,7 C 19,4 C 63 % 1014,7 hPa 0,0 l/m 0 min 0 min 407 W/m 3,2 km/h (1 Bft) 95,74 %
06.06.2019 15:42 19,7 C 21,1 C 19,4 C 60 % 1014,8 hPa 0,0 l/m 2 min 0 min 419 W/m 9,7 km/h (2 Bft) 95,74 %
06.06.2019 15:44 19,7 C 21,7 C 19,4 C 61 % 1014,8 hPa 0,0 l/m 2 min 0 min 466 W/m 6,4 km/h (2 Bft) 97,87 %
06.06.2019 15:46 19,7 C 21,7 C 19,4 C 61 % 1014,8 hPa 0,0 l/m 2 min 0 min 458 W/m 6,4 km/h (2 Bft) 95,74 %
06.06.2019 15:48 19,8 C 21,1 C 19,4 C 61 % 1014,8 hPa 0,0 l/m 2 min 0 min 424 W/m 6,4 km/h (2 Bft) 97,83 %
06.06.2019 15:50 19,8 C 21,1 C 19,4 C 61 % 1014,8 hPa 0,0 l/m 2 min 0 min 455 W/m 9,7 km/h (2 Bft) 97,87 %
06.06.2019 15:52 19,8 C 21,7 C 20,0 C 61 % 1014,8 hPa 0,0 l/m 2 min 0 min 544 W/m 9,7 km/h (2 Bft) 97,92 %
06.06.2019 15:54 19,8 C 21,7 C 20,0 C 62 % 1014,8 hPa 0,0 l/m 2 min 0 min 647 W/m 6,4 km/h (2 Bft) 97,87 %
06.06.2019 15:56 19,8 C 22,2 C 20,0 C 62 % 1014,7 hPa 0,0 l/m 2 min 0 min 503 W/m 6,4 km/h (2 Bft) 97,87 %
06.06.2019 15:58 19,9 C 22,2 C 20,0 C 60 % 1014,7 hPa 0,0 l/m 2 min 0 min 572 W/m 9,7 km/h (2 Bft) 97,83 %
06.06.2019 16:00 19,9 C 22,2 C 20,0 C 61 % 1014,7 hPa 0,0 l/m 2 min 0 min 672 W/m 12,9 km/h (3 Bft) 97,87 %
06.06.2019 16:02 19,9 C 21,7 C 19,4 C 59 % 1014,6 hPa 0,0 l/m 2 min 0 min 530 W/m 9,7 km/h (2 Bft) 97,87 %
06.06.2019 16:04 19,9 C 21,7 C 19,4 C 60 % 1014,7 hPa 0,0 l/m 2 min 0 min 503 W/m 6,4 km/h (2 Bft) 97,87 %
06.06.2019 16:06 20,0 C 21,7 C 19,4 C 59 % 1014,6 hPa 0,0 l/m 2 min 0 min 537 W/m 9,7 km/h (2 Bft) 97,87 %
06.06.2019 16:08 20,0 C 21,1 C 20,0 C 60 % 1014,6 hPa 0,0 l/m 2 min 0 min 391 W/m 16,1 km/h (3 Bft) 97,87 %
06.06.2019 16:10 20,0 C 21,1 C 19,4 C 61 % 1014,6 hPa 0,0 l/m 0 min 0 min 334 W/m 9,7 km/h (2 Bft) 97,87 %
06.06.2019 16:12 20,0 C 20,6 C 19,4 C 61 % 1014,6 hPa 0,0 l/m 0 min 0 min 320 W/m 9,7 km/h (2 Bft) 97,83 %
06.06.2019 16:14 20,0 C 20,6 C 19,4 C 61 % 1014,6 hPa 0,0 l/m 0 min 0 min 363 W/m 6,4 km/h (2 Bft) 97,87 %
06.06.2019 16:16 19,9 C 20,0 C 19,4 C 61 % 1014,6 hPa 0,0 l/m 0 min 0 min 354 W/m 9,7 km/h (2 Bft) 95,74 %
06.06.2019 16:18 19,9 C 20,0 C 18,9 C 62 % 1014,7 hPa 0,0 l/m 0 min 0 min 314 W/m 9,7 km/h (2 Bft) 97,87 %
06.06.2019 16:20 19,8 C 20,0 C 18,9 C 60 % 1014,6 hPa 0,0 l/m 0 min 0 min 317 W/m 9,7 km/h (2 Bft) 100,00 %
06.06.2019 16:22 19,7 C 19,4 C 18,9 C 58 % 1014,6 hPa 0,0 l/m 0 min 0 min 344 W/m 12,9 km/h (3 Bft) 100,00 %
06.06.2019 16:24 19,7 C 20,0 C 19,4 C 59 % 1014,6 hPa 0,0 l/m 2 min 0 min 439 W/m 12,9 km/h (3 Bft) 97,87 %
06.06.2019 16:26 19,7 C 20,6 C 19,4 C 61 % 1014,6 hPa 0,0 l/m 2 min 0 min 454 W/m 12,9 km/h (3 Bft) 100,00 %
06.06.2019 16:28 19,7 C 20,6 C 19,4 C 61 % 1014,5 hPa 0,0 l/m 2 min 0 min 420 W/m 6,4 km/h (2 Bft) 97,87 %
06.06.2019 16:30 19,7 C 20,6 C 19,4 C 61 % 1014,6 hPa 0,0 l/m 2 min 0 min 443 W/m 6,4 km/h (2 Bft) 100,00 %
06.06.2019 16:32 19,7 C 21,1 C 19,4 C 60 % 1014,5 hPa 0,0 l/m 2 min 0 min 447 W/m 12,9 km/h (3 Bft) 97,87 %
06.06.2019 16:34 19,7 C 21,1 C 19,4 C 57 % 1014,5 hPa 0,0 l/m 2 min 0 min 455 W/m 12,9 km/h (3 Bft) 100,00 %
06.06.2019 16:36 19,7 C 21,7 C 20,0 C 59 % 1014,5 hPa 0,0 l/m 2 min 0 min 607 W/m 6,4 km/h (2 Bft) 100,00 %
06.06.2019 16:38 19,8 C 22,2 C 20,0 C 61 % 1014,5 hPa 0,0 l/m 2 min 0 min 685 W/m 9,7 km/h (2 Bft) 100,00 %
06.06.2019 16:40 19,9 C 22,2 C 20,0 C 59 % 1014,5 hPa 0,0 l/m 2 min 0 min 733 W/m 12,9 km/h (3 Bft) 97,87 %
06.06.2019 16:42 19,9 C 22,2 C 20,0 C 57 % 1014,4 hPa 0,0 l/m 2 min 0 min 784 W/m 12,9 km/h (3 Bft) 97,87 %
06.06.2019 16:44 20,0 C 22,2 C 20,6 C 60 % 1014,5 hPa 0,0 l/m 2 min 0 min 693 W/m 12,9 km/h (3 Bft) 97,87 %
06.06.2019 16:46 20,1 C 21,7 C 20,0 C 59 % 1014,5 hPa 0,0 l/m 2 min 0 min 524 W/m 12,9 km/h (3 Bft) 97,83 %
06.06.2019 16:48 20,1 C 21,1 C 19,4 C 58 % 1014,6 hPa 0,0 l/m 0 min 0 min 304 W/m 16,1 km/h (3 Bft) 97,87 %
06.06.2019 16:50 20,1 C 20,6 C 19,4 C 58 % 1014,5 hPa 0,0 l/m 0 min 0 min 308 W/m 9,7 km/h (2 Bft) 95,74 %
06.06.2019 16:52 20,1 C 20,6 C 19,4 C 57 % 1014,5 hPa 0,0 l/m 2 min 0 min 371 W/m 9,7 km/h (2 Bft) 97,87 %
06.06.2019 16:54 20,1 C 20,0 C 18,9 C 56 % 1014,5 hPa 0,0 l/m 2 min 0 min 349 W/m 12,9 km/h (3 Bft) 95,74 %
06.06.2019 16:56 20,1 C 20,0 C 19,4 C 57 % 1014,5 hPa 0,0 l/m 0 min 0 min 331 W/m 6,4 km/h (2 Bft) 97,87 %
06.06.2019 16:58 20,0 C 20,0 C 19,4 C 57 % 1014,5 hPa 0,0 l/m 0 min 0 min 324 W/m 16,1 km/h (3 Bft) 97,83 %
06.06.2019 17:00 19,9 C 20,0 C 19,4 C 59 % 1014,5 hPa 0,0 l/m 0 min 0 min 324 W/m 3,2 km/h (1 Bft) 97,87 %
06.06.2019 17:02 19,9 C 20,0 C 19,4 C 60 % 1014,5 hPa 0,0 l/m 0 min 0 min 323 W/m 12,9 km/h (3 Bft) 97,87 %
06.06.2019 17:04 19,9 C 20,0 C 19,4 C 59 % 1014,5 hPa 0,0 l/m 0 min 0 min 305 W/m 16,1 km/h (3 Bft) 97,87 %
06.06.2019 17:06 19,9 C 20,0 C 18,9 C 58 % 1014,4 hPa 0,0 l/m 0 min 0 min 281 W/m 9,7 km/h (2 Bft) 97,87 %
06.06.2019 17:08 19,9 C 20,0 C 18,9 C 60 % 1014,4 hPa 0,0 l/m 0 min 0 min 306 W/m 6,4 km/h (2 Bft) 93,48 %
06.06.2019 17:10 19,8 C 20,0 C 18,9 C 59 % 1014,5 hPa 0,0 l/m 0 min 0 min 327 W/m 12,9 km/h (3 Bft) 97,87 %
06.06.2019 17:12 19,8 C 20,0 C 18,9 C 60 % 1014,4 hPa 0,0 l/m 2 min 0 min 374 W/m 9,7 km/h (2 Bft) 97,87 %
06.06.2019 17:14 19,8 C 20,0 C 19,4 C 59 % 1014,4 hPa 0,0 l/m 2 min 0 min 431 W/m 9,7 km/h (2 Bft) 97,87 %
06.06.2019 17:16 19,8 C 20,0 C 19,4 C 58 % 1014,4 hPa 0,0 l/m 2 min 0 min 385 W/m 6,4 km/h (2 Bft) 97,87 %
06.06.2019 17:18 19,8 C 20,6 C 19,4 C 60 % 1014,4 hPa 0,0 l/m 2 min 0 min 437 W/m 6,4 km/h (2 Bft) 97,87 %
06.06.2019 17:20 19,8 C 21,1 C 19,4 C 61 % 1014,4 hPa 0,0 l/m 2 min 0 min 494 W/m 12,9 km/h (3 Bft) 97,83 %
06.06.2019 17:22 19,8 C 21,1 C 19,4 C 60 % 1014,4 hPa 0,0 l/m 2 min 0 min 661 W/m 6,4 km/h (2 Bft) 98,00 %
06.06.2019 17:24 19,9 C 20,6 C 19,4 C 59 % 1014,4 hPa 0,0 l/m 2 min 0 min 495 W/m 6,4 km/h (2 Bft) 100,00 %
06.06.2019 17:26 19,9 C 20,0 C 18,9 C 60 % 1014,4 hPa 0,0 l/m 0 min 0 min 271 W/m 9,7 km/h (2 Bft) 97,83 %
06.06.2019 17:28 19,9 C 20,0 C 18,3 C 61 % 1014,4 hPa 0,0 l/m 0 min 0 min 240 W/m 3,2 km/h (1 Bft) 100,00 %
06.06.2019 17:30 19,9 C 20,0 C 18,3 C 61 % 1014,4 hPa 0,0 l/m 0 min 0 min 221 W/m 6,4 km/h (2 Bft) 100,00 %
06.06.2019 17:32 19,9 C 19,4 C 18,3 C 60 % 1014,4 hPa 0,0 l/m 0 min 0 min 212 W/m 12,9 km/h (3 Bft) 100,00 %
06.06.2019 17:34 19,8 C 18,9 C 18,3 C 59 % 1014,4 hPa 0,0 l/m 0 min 0 min 204 W/m 9,7 km/h (2 Bft) 100,00 %
06.06.2019 17:36 19,8 C 18,9 C 18,3 C 59 % 1014,3 hPa 0,0 l/m 0 min 0 min 230 W/m 9,7 km/h (2 Bft) 100,00 %
06.06.2019 17:38 19,8 C 19,4 C 18,9 C 60 % 1014,3 hPa 0,0 l/m 2 min 0 min 551 W/m 6,4 km/h (2 Bft) 100,00 %
06.06.2019 17:40 19,8 C 20,0 C 18,9 C 61 % 1014,3 hPa 0,0 l/m 2 min 0 min 696 W/m 9,7 km/h (2 Bft) 100,00 %
06.06.2019 17:42 19,9 C 20,6 C 18,9 C 62 % 1014,3 hPa 0,0 l/m 2 min 0 min 657 W/m 6,4 km/h (2 Bft) 95,74 %
06.06.2019 17:44 19,9 C 20,6 C 19,4 C 63 % 1014,2 hPa 0,0 l/m 2 min 0 min 622 W/m 6,4 km/h (2 Bft) 100,00 %
06.06.2019 17:46 20,1 C 21,1 C 19,4 C 62 % 1014,3 hPa 0,0 l/m 2 min 0 min 596 W/m 3,2 km/h (1 Bft) 100,00 %
06.06.2019 17:48 20,1 C 20,6 C 19,4 C 60 % 1014,2 hPa 0,0 l/m 2 min 0 min 587 W/m 9,7 km/h (2 Bft) 100,00 %
06.06.2019 17:50 20,2 C 20,0 C 19,4 C 59 % 1014,2 hPa 0,0 l/m 2 min 0 min 578 W/m 9,7 km/h (2 Bft) 100,00 %
06.06.2019 17:52 20,2 C 20,0 C 19,4 C 58 % 1014,3 hPa 0,0 l/m 2 min 0 min 577 W/m 6,4 km/h (2 Bft) 97,87 %
06.06.2019 17:54 20,3 C 20,6 C 19,4 C 59 % 1014,3 hPa 0,0 l/m 2 min 0 min 569 W/m 9,7 km/h (2 Bft) 100,00 %
06.06.2019 17:56 20,4 C 20,6 C 18,9 C 58 % 1014,3 hPa 0,0 l/m 2 min 0 min 569 W/m 12,9 km/h (3 Bft) 100,00 %
06.06.2019 17:58 20,5 C 20,6 C 19,4 C 58 % 1014,3 hPa 0,0 l/m 2 min 0 min 573 W/m 6,4 km/h (2 Bft) 100,00 %
06.06.2019 18:00 20,6 C 21,1 C 19,4 C 60 % 1014,3 hPa 0,0 l/m 2 min 0 min 565 W/m 9,7 km/h (2 Bft) 97,87 %
06.06.2019 18:02 20,6 C 20,6 C 20,0 C 56 % 1014,3 hPa 0,0 l/m 2 min 0 min 542 W/m 9,7 km/h (2 Bft) 97,83 %
06.06.2019 18:04 20,7 C 20,6 C 20,6 C 57 % 1014,3 hPa 0,0 l/m 2 min 0 min 534 W/m 6,4 km/h (2 Bft) 100,00 %
06.06.2019 18:08 20,8 C 20,6 C 20,6 C 56 % 1014,4 hPa 0,0 l/m 4 min 0 min 525 W/m 12,9 km/h (3 Bft) 98,94 %
06.06.2019 18:10 20,8 C 20,0 C 19,4 C 53 % 1014,3 hPa 0,0 l/m 2 min 0 min 521 W/m 9,7 km/h (2 Bft) 97,87 %
06.06.2019 18:12 20,8 C 20,6 C 19,4 C 54 % 1014,3 hPa 0,0 l/m 2 min 0 min 515 W/m 9,7 km/h (2 Bft) 97,83 %
06.06.2019 18:14 20,9 C 20,6 C 18,9 C 55 % 1014,2 hPa 0,0 l/m 2 min 0 min 514 W/m 9,7 km/h (2 Bft) 97,87 %
06.06.2019 18:16 20,9 C 20,6 C 18,9 C 57 % 1014,2 hPa 0,0 l/m 2 min 0 min 505 W/m 6,4 km/h (2 Bft) 100,00 %
06.06.2019 18:18 20,9 C 20,6 C 18,9 C 56 % 1014,2 hPa 0,0 l/m 2 min 0 min 495 W/m 6,4 km/h (2 Bft) 97,87 %
06.06.2019 18:20 21,0 C 20,6 C 18,9 C 57 % 1014,2 hPa 0,0 l/m 2 min 0 min 485 W/m 3,2 km/h (1 Bft) 93,62 %
06.06.2019 18:22 21,0 C 21,1 C 18,9 C 57 % 1014,2 hPa 0,0 l/m 2 min 0 min 440 W/m 6,4 km/h (2 Bft) 97,87 %
06.06.2019 18:24 21,0 C 21,1 C 18,9 C 54 % 1014,2 hPa 0,0 l/m 2 min 0 min 431 W/m 9,7 km/h (2 Bft) 95,65 %
06.06.2019 18:26 21,1 C 21,1 C 18,9 C 54 % 1014,2 hPa 0,0 l/m 2 min 0 min 482 W/m 6,4 km/h (2 Bft) 95,74 %
06.06.2019 18:28 21,1 C 21,1 C 18,9 C 54 % 1014,1 hPa 0,0 l/m 2 min 0 min 466 W/m 9,7 km/h (2 Bft) 95,74 %
06.06.2019 18:30 21,2 C 21,1 C 18,9 C 54 % 1014,2 hPa 0,0 l/m 2 min 0 min 480 W/m 9,7 km/h (2 Bft) 95,74 %
06.06.2019 18:32 21,2 C 20,0 C 18,9 C 52 % 1014,1 hPa 0,0 l/m 2 min 0 min 505 W/m 12,9 km/h (3 Bft) 93,62 %
06.06.2019 18:34 21,2 C 20,6 C 18,9 C 53 % 1014,2 hPa 0,0 l/m 2 min 0 min 495 W/m 12,9 km/h (3 Bft) 95,74 %
06.06.2019 18:36 21,2 C 20,6 C 19,4 C 53 % 1014,2 hPa 0,0 l/m 2 min 0 min 457 W/m 6,4 km/h (2 Bft) 95,65 %
06.06.2019 18:38 21,3 C 20,6 C 18,9 C 54 % 1014,2 hPa 0,0 l/m 2 min 0 min 351 W/m 6,4 km/h (2 Bft) 95,74 %
06.06.2019 18:40 21,3 C 20,0 C 18,9 C 52 % 1014,2 hPa 0,0 l/m 0 min 0 min 194 W/m 6,4 km/h (2 Bft) 95,74 %
06.06.2019 18:42 21,2 C 20,0 C 18,9 C 53 % 1014,2 hPa 0,0 l/m 2 min 0 min 236 W/m 6,4 km/h (2 Bft) 95,74 %
06.06.2019 18:44 21,2 C 20,6 C 19,4 C 55 % 1014,2 hPa 0,0 l/m 2 min 0 min 464 W/m 9,7 km/h (2 Bft) 95,74 %
06.06.2019 18:46 21,2 C 20,0 C 20,0 C 53 % 1014,2 hPa 0,0 l/m 2 min 0 min 425 W/m 9,7 km/h (2 Bft) 95,74 %
06.06.2019 18:48 21,2 C 20,0 C 20,0 C 53 % 1014,2 hPa 0,0 l/m 2 min 0 min 401 W/m 6,4 km/h (2 Bft) 95,65 %
06.06.2019 18:50 21,1 C 20,6 C 20,0 C 52 % 1014,2 hPa 0,0 l/m 2 min 0 min 443 W/m 9,7 km/h (2 Bft) 93,62 %
06.06.2019 18:52 21,1 C 20,6 C 19,4 C 53 % 1014,2 hPa 0,0 l/m 2 min 0 min 459 W/m 6,4 km/h (2 Bft) 95,74 %
06.06.2019 18:54 21,1 C 20,6 C 19,4 C 53 % 1014,2 hPa 0,0 l/m 2 min 0 min 420 W/m 9,7 km/h (2 Bft) 95,74 %
06.06.2019 18:56 21,1 C 20,6 C 19,4 C 54 % 1014,2 hPa 0,0 l/m 2 min 0 min 373 W/m 3,2 km/h (1 Bft) 95,74 %
06.06.2019 18:58 21,1 C 20,6 C 19,4 C 56 % 1014,1 hPa 0,0 l/m 2 min 0 min 350 W/m 6,4 km/h (2 Bft) 95,74 %
06.06.2019 19:00 21,1 C 20,6 C 20,0 C 57 % 1014,2 hPa 0,0 l/m 2 min 0 min 361 W/m 6,4 km/h (2 Bft) 95,65 %
06.06.2019 19:02 21,1 C 21,1 C 20,0 C 55 % 1014,1 hPa 0,0 l/m 2 min 0 min 366 W/m 12,9 km/h (3 Bft) 95,74 %
06.06.2019 19:04 21,1 C 20,6 C 19,4 C 54 % 1014,2 hPa 0,0 l/m 2 min 0 min 374 W/m 16,1 km/h (3 Bft) 93,62 %
06.06.2019 19:06 21,1 C 20,6 C 18,9 C 53 % 1014,1 hPa 0,0 l/m 2 min 0 min 374 W/m 12,9 km/h (3 Bft) 97,87 %
06.06.2019 19:08 21,1 C 19,4 C 18,3 C 52 % 1014,1 hPa 0,0 l/m 2 min 0 min 373 W/m 16,1 km/h (3 Bft) 93,62 %
06.06.2019 19:10 21,1 C 19,4 C 18,3 C 52 % 1014,1 hPa 0,0 l/m 2 min 0 min 371 W/m 12,9 km/h (3 Bft) 95,74 %
06.06.2019 19:12 21,1 C 19,4 C 18,3 C 52 % 1014,2 hPa 0,0 l/m 2 min 0 min 367 W/m 16,1 km/h (3 Bft) 95,65 %
06.06.2019 19:14 21,0 C 19,4 C 18,3 C 52 % 1014,2 hPa 0,0 l/m 2 min 0 min 359 W/m 22,5 km/h (4 Bft) 95,74 %
06.06.2019 19:16 20,9 C 19,4 C 18,3 C 52 % 1014,2 hPa 0,0 l/m 2 min 0 min 358 W/m 16,1 km/h (3 Bft) 97,87 %
06.06.2019 19:18 20,9 C 19,4 C 18,3 C 52 % 1014,2 hPa 0,0 l/m 2 min 0 min 350 W/m 22,5 km/h (4 Bft) 95,74 %
06.06.2019 19:20 20,8 C 19,4 C 18,3 C 53 % 1014,1 hPa 0,0 l/m 2 min 0 min 325 W/m 16,1 km/h (3 Bft) 97,87 %
06.06.2019 19:22 20,8 C 19,4 C 18,3 C 54 % 1014,2 hPa 0,0 l/m 2 min 0 min 303 W/m 12,9 km/h (3 Bft) 97,83 %
06.06.2019 19:24 20,7 C 19,4 C 18,3 C 54 % 1014,2 hPa 0,0 l/m 2 min 0 min 292 W/m 12,9 km/h (3 Bft) 97,87 %
06.06.2019 19:26 20,7 C 19,4 C 18,3 C 52 % 1014,1 hPa 0,0 l/m 2 min 0 min 284 W/m 9,7 km/h (2 Bft) 95,74 %
06.06.2019 19:28 20,7 C 19,4 C 17,8 C 52 % 1014,1 hPa 0,0 l/m 2 min 0 min 197 W/m 12,9 km/h (3 Bft) 97,87 %
06.06.2019 19:30 20,6 C 18,9 C 17,8 C 53 % 1014,2 hPa 0,0 l/m 0 min 0 min 84 W/m 12,9 km/h (3 Bft) 97,87 %
06.06.2019 19:32 20,6 C 18,9 C 17,8 C 54 % 1014,2 hPa 0,0 l/m 0 min 0 min 76 W/m 19,3 km/h (3 Bft) 95,74 %
06.06.2019 19:34 20,5 C 18,9 C 17,8 C 54 % 1014,2 hPa 0,0 l/m 0 min 0 min 73 W/m 16,1 km/h (3 Bft) 97,83 %
06.06.2019 19:36 20,4 C 18,9 C 17,8 C 54 % 1014,2 hPa 0,0 l/m 0 min 0 min 77 W/m 16,1 km/h (3 Bft) 95,74 %
06.06.2019 19:38 20,3 C 18,9 C 17,8 C 55 % 1014,2 hPa 0,0 l/m 2 min 0 min 172 W/m 12,9 km/h (3 Bft) 97,87 %
06.06.2019 19:40 20,3 C 18,3 C 17,8 C 55 % 1014,2 hPa 0,0 l/m 2 min 0 min 221 W/m 9,7 km/h (2 Bft) 97,87 %
06.06.2019 19:42 20,2 C 18,3 C 17,8 C 55 % 1014,2 hPa 0,0 l/m 2 min 0 min 208 W/m 16,1 km/h (3 Bft) 95,74 %
06.06.2019 19:44 20,1 C 18,3 C 17,2 C 55 % 1014,2 hPa 0,0 l/m 0 min 0 min 133 W/m 9,7 km/h (2 Bft) 97,87 %
06.06.2019 19:46 20,0 C 18,3 C 17,2 C 55 % 1014,2 hPa 0,0 l/m 0 min 0 min 66 W/m 16,1 km/h (3 Bft) 100,00 %
06.06.2019 19:48 19,9 C 18,3 C 17,2 C 56 % 1014,2 hPa 0,0 l/m 0 min 0 min 63 W/m 9,7 km/h (2 Bft) 100,00 %
06.06.2019 19:50 19,9 C 18,3 C 17,2 C 57 % 1014,2 hPa 0,0 l/m 0 min 0 min 63 W/m 9,7 km/h (2 Bft) 100,00 %
06.06.2019 19:52 19,8 C 18,3 C 17,2 C 57 % 1014,2 hPa 0,0 l/m 0 min 0 min 65 W/m 9,7 km/h (2 Bft) 100,00 %
06.06.2019 19:54 19,8 C 18,3 C 17,2 C 57 % 1014,2 hPa 0,0 l/m 0 min 0 min 64 W/m 12,9 km/h (3 Bft) 100,00 %
06.06.2019 19:56 19,7 C 18,3 C 17,2 C 57 % 1014,3 hPa 0,0 l/m 0 min 0 min 61 W/m 9,7 km/h (2 Bft) 100,00 %
06.06.2019 19:58 19,6 C 18,3 C 17,2 C 57 % 1014,3 hPa 0,0 l/m 0 min 0 min 58 W/m 12,9 km/h (3 Bft) 100,00 %
06.06.2019 20:00 19,6 C 17,8 C 17,2 C 57 % 1014,3 hPa 0,0 l/m 0 min 0 min 56 W/m 12,9 km/h (3 Bft) 100,00 %
06.06.2019 20:02 19,5 C 17,8 C 17,2 C 57 % 1014,4 hPa 0,0 l/m 0 min 0 min 56 W/m 12,9 km/h (3 Bft) 100,00 %
06.06.2019 20:04 19,4 C 17,8 C 17,2 C 58 % 1014,4 hPa 0,0 l/m 0 min 0 min 56 W/m 9,7 km/h (2 Bft) 100,00 %
06.06.2019 20:06 19,4 C 17,8 C 17,2 C 58 % 1014,4 hPa 0,0 l/m 0 min 0 min 54 W/m 12,9 km/h (3 Bft) 100,00 %
06.06.2019 20:08 19,3 C 17,8 C 17,2 C 58 % 1014,5 hPa 0,0 l/m 0 min 0 min 53 W/m 12,9 km/h (3 Bft) 100,00 %
06.06.2019 20:10 19,3 C 17,8 C 17,2 C 59 % 1014,4 hPa 0,0 l/m 0 min 0 min 51 W/m 9,7 km/h (2 Bft) 100,00 %
06.06.2019 20:12 19,2 C 17,8 C 17,2 C 59 % 1014,4 hPa 0,0 l/m 0 min 0 min 50 W/m 16,1 km/h (3 Bft) 100,00 %
06.06.2019 20:14 19,2 C 17,8 C 17,2 C 59 % 1014,5 hPa 0,0 l/m 0 min 0 min 49 W/m 16,1 km/h (3 Bft) 100,00 %
06.06.2019 20:16 19,1 C 17,8 C 16,7 C 59 % 1014,5 hPa 0,0 l/m 0 min 0 min 47 W/m 16,1 km/h (3 Bft) 100,00 %
06.06.2019 20:18 19,1 C 17,8 C 16,7 C 59 % 1014,5 hPa 0,0 l/m 0 min 0 min 46 W/m 19,3 km/h (3 Bft) 97,87 %
06.06.2019 20:20 19,0 C 17,8 C 16,7 C 59 % 1014,6 hPa 0,0 l/m 0 min 0 min 46 W/m 6,4 km/h (2 Bft) 100,00 %
06.06.2019 20:22 18,9 C 17,8 C 16,7 C 59 % 1014,6 hPa 0,0 l/m 0 min 0 min 44 W/m 9,7 km/h (2 Bft) 100,00 %
06.06.2019 20:24 18,9 C 17,2 C 16,7 C 59 % 1014,6 hPa 0,0 l/m 0 min 0 min 42 W/m 16,1 km/h (3 Bft) 97,83 %
06.06.2019 20:26 18,8 C 17,2 C 16,7 C 59 % 1014,6 hPa 0,0 l/m 0 min 0 min 40 W/m 19,3 km/h (3 Bft) 100,00 %
06.06.2019 20:28 18,8 C 17,2 C 16,7 C 60 % 1014,6 hPa 0,0 l/m 0 min 0 min 39 W/m 9,7 km/h (2 Bft) 100,00 %
06.06.2019 20:30 18,7 C 17,2 C 16,7 C 60 % 1014,6 hPa 0,0 l/m 0 min 0 min 38 W/m 19,3 km/h (3 Bft) 100,00 %
06.06.2019 20:32 18,7 C 17,2 C 16,7 C 60 % 1014,6 hPa 0,0 l/m 0 min 0 min 37 W/m 16,1 km/h (3 Bft) 100,00 %
06.06.2019 20:34 18,6 C 17,2 C 16,7 C 60 % 1014,6 hPa 0,0 l/m 0 min 0 min 36 W/m 16,1 km/h (3 Bft) 100,00 %
06.06.2019 20:36 18,6 C 17,2 C 16,7 C 60 % 1014,6 hPa 0,0 l/m 0 min 0 min 34 W/m 16,1 km/h (3 Bft) 100,00 %
06.06.2019 20:38 18,5 C 17,2 C 16,7 C 60 % 1014,7 hPa 0,0 l/m 0 min 0 min 33 W/m 16,1 km/h (3 Bft) 100,00 %
06.06.2019 20:40 18,4 C 17,2 C 16,7 C 60 % 1014,6 hPa 0,0 l/m 0 min 0 min 32 W/m 12,9 km/h (3 Bft) 100,00 %
06.06.2019 20:42 18,4 C 17,2 C 16,7 C 61 % 1014,6 hPa 0,0 l/m 0 min 0 min 30 W/m 6,4 km/h (2 Bft) 97,87 %
06.06.2019 20:44 18,4 C 17,2 C 16,7 C 61 % 1014,6 hPa 0,0 l/m 0 min 0 min 29 W/m 16,1 km/h (3 Bft) 100,00 %
06.06.2019 20:46 18,3 C 17,2 C 16,7 C 61 % 1014,6 hPa 0,0 l/m 0 min 0 min 27 W/m 9,7 km/h (2 Bft) 100,00 %
06.06.2019 20:48 18,3 C 16,7 C 16,7 C 62 % 1014,5 hPa 0,0 l/m 0 min 0 min 26 W/m 9,7 km/h (2 Bft) 100,00 %
06.06.2019 20:50 18,3 C 16,7 C 16,7 C 62 % 1014,5 hPa 0,0 l/m 0 min 0 min 25 W/m 9,7 km/h (2 Bft) 100,00 %
06.06.2019 20:52 18,2 C 16,7 C 16,1 C 62 % 1014,5 hPa 0,0 l/m 0 min 0 min 25 W/m 12,9 km/h (3 Bft) 97,87 %
06.06.2019 20:54 18,2 C 16,7 C 16,1 C 63 % 1014,5 hPa 0,0 l/m 0 min 0 min 24 W/m 6,4 km/h (2 Bft) 97,87 %
06.06.2019 20:56 18,2 C 16,7 C 16,1 C 63 % 1014,6 hPa 0,0 l/m 0 min 0 min 23 W/m 6,4 km/h (2 Bft) 95,74 %
06.06.2019 20:58 18,2 C 16,7 C 16,1 C 63 % 1014,6 hPa 0,0 l/m 0 min 0 min 22 W/m 12,9 km/h (3 Bft) 97,83 %
06.06.2019 21:00 18,1 C 16,7 C 16,1 C 63 % 1014,5 hPa 0,0 l/m 0 min 0 min 21 W/m 12,9 km/h (3 Bft) 100,00 %
06.06.2019 21:02 18,1 C 16,7 C 16,1 C 63 % 1014,5 hPa 0,0 l/m 0 min 0 min 20 W/m 12,9 km/h (3 Bft) 100,00 %
06.06.2019 21:04 18,1 C 16,7 C 16,1 C 63 % 1014,6 hPa 0,0 l/m 0 min 0 min 19 W/m 9,7 km/h (2 Bft) 97,87 %
06.06.2019 21:06 18,0 C 16,7 C 16,1 C 63 % 1014,6 hPa 0,0 l/m 0 min 0 min 18 W/m 6,4 km/h (2 Bft) 97,87 %
06.06.2019 21:08 17,9 C 16,7 C 16,1 C 63 % 1014,7 hPa 0,0 l/m 0 min 0 min 18 W/m 9,7 km/h (2 Bft) 97,87 %
06.06.2019 21:10 17,9 C 16,7 C 16,1 C 63 % 1014,6 hPa 0,0 l/m 0 min 0 min 16 W/m 12,9 km/h (3 Bft) 100,00 %
06.06.2019 21:12 17,9 C 16,7 C 16,1 C 64 % 1014,7 hPa 0,0 l/m 0 min 0 min 15 W/m 9,7 km/h (2 Bft) 97,87 %
06.06.2019 21:14 17,8 C 16,1 C 16,1 C 64 % 1014,7 hPa 0,0 l/m 0 min 0 min 14 W/m 6,4 km/h (2 Bft) 97,87 %
06.06.2019 21:16 17,8 C 16,1 C 15,6 C 64 % 1014,7 hPa 0,0 l/m 0 min 0 min 14 W/m 3,2 km/h (1 Bft) 95,74 %
06.06.2019 21:18 17,8 C 16,1 C 15,6 C 64 % 1014,7 hPa 0,0 l/m 0 min 0 min 12 W/m 6,4 km/h (2 Bft) 93,62 %
06.06.2019 21:20 17,8 C 16,1 C 15,6 C 65 % 1014,7 hPa 0,0 l/m 0 min 0 min 12 W/m 3,2 km/h (1 Bft) 97,87 %
06.06.2019 21:22 17,7 C 16,1 C 15,6 C 65 % 1014,7 hPa 0,0 l/m 0 min 0 min 12 W/m 6,4 km/h (2 Bft) 95,65 %
06.06.2019 21:24 17,7 C 16,1 C 15,6 C 65 % 1014,6 hPa 0,0 l/m 0 min 0 min 11 W/m 6,4 km/h (2 Bft) 95,74 %
06.06.2019 21:26 17,7 C 16,1 C 15,6 C 65 % 1014,7 hPa 0,0 l/m 0 min 0 min 11 W/m 6,4 km/h (2 Bft) 95,74 %
06.06.2019 21:28 17,7 C 16,1 C 15,6 C 66 % 1014,7 hPa 0,0 l/m 0 min 0 min 10 W/m 6,4 km/h (2 Bft) 95,74 %
06.06.2019 21:30 17,6 C 16,1 C 15,6 C 66 % 1014,7 hPa 0,0 l/m 0 min 0 min 9 W/m 3,2 km/h (1 Bft) 95,74 %
06.06.2019 21:32 17,6 C 16,1 C 15,6 C 66 % 1014,7 hPa 0,0 l/m 0 min 0 min 7 W/m 6,4 km/h (2 Bft) 93,62 %
06.06.2019 21:34 17,6 C 16,1 C 15,6 C 66 % 1014,7 hPa 0,0 l/m 0 min 0 min 7 W/m 6,4 km/h (2 Bft) 95,65 %
06.06.2019 21:36 17,5 C 16,1 C 15,6 C 66 % 1014,7 hPa 0,0 l/m 0 min 0 min 6 W/m 6,4 km/h (2 Bft) 92,45 %
06.06.2019 21:38 17,4 C 16,1 C 15,6 C 66 % 1014,8 hPa 0,0 l/m 0 min 0 min 5 W/m 3,2 km/h (1 Bft) 95,12 %
06.06.2019 21:40 17,4 C 15,6 C 15,6 C 67 % 1014,8 hPa 0,0 l/m 0 min 0 min 5 W/m 3,2 km/h (1 Bft) 95,74 %
06.06.2019 21:42 17,4 C 15,6 C 15,0 C 67 % 1014,7 hPa 0,0 l/m 0 min 0 min 3 W/m 3,2 km/h (1 Bft) 93,62 %
06.06.2019 21:44 17,4 C 15,6 C 15,0 C 67 % 1014,8 hPa 0,0 l/m 0 min 0 min 0 W/m 3,2 km/h (1 Bft) 95,74 %
06.06.2019 21:46 17,3 C 15,6 C 15,0 C 67 % 1014,8 hPa 0,0 l/m 0 min 0 min 0 W/m 3,2 km/h (1 Bft) 93,48 %
06.06.2019 21:48 17,3 C 15,6 C 15,0 C 67 % 1014,9 hPa 0,0 l/m 0 min 0 min 0 W/m 3,2 km/h (1 Bft) 91,49 %
06.06.2019 21:50 17,3 C 15,6 C 15,0 C 67 % 1014,8 hPa 0,0 l/m 0 min 0 min 0 W/m 6,4 km/h (2 Bft) 93,62 %
06.06.2019 21:52 17,3 C 15,6 C 15,0 C 67 % 1014,8 hPa 0,0 l/m 0 min 0 min 0 W/m 3,2 km/h (1 Bft) 93,62 %
06.06.2019 21:54 17,2 C 15,6 C 14,4 C 67 % 1014,9 hPa 0,0 l/m 0 min 0 min 0 W/m 3,2 km/h (1 Bft) 93,62 %
06.06.2019 21:56 17,2 C 15,6 C 14,4 C 67 % 1014,8 hPa 0,0 l/m 0 min 0 min 0 W/m 3,2 km/h (1 Bft) 95,65 %
06.06.2019 21:58 17,2 C 15,6 C 14,4 C 68 % 1014,9 hPa 0,0 l/m 0 min 0 min 0 W/m 3,2 km/h (1 Bft) 95,74 %
06.06.2019 22:00 17,1 C 15,6 C 14,4 C 68 % 1014,9 hPa 0,0 l/m 0 min 0 min 0 W/m 0,0 km/h (0 Bft) 95,74 %
06.06.2019 22:02 17,1 C 15,6 C 14,4 C 68 % 1015,0 hPa 0,0 l/m 0 min 0 min 0 W/m 3,2 km/h (1 Bft) 95,74 %
06.06.2019 22:04 17,1 C 15,6 C 14,4 C 68 % 1015,0 hPa 0,0 l/m 0 min 0 min 0 W/m 3,2 km/h (1 Bft) 93,62 %
06.06.2019 22:06 17,0 C 15,0 C 14,4 C 68 % 1015,0 hPa 0,0 l/m 0 min 0 min 0 W/m 6,4 km/h (2 Bft) 96,15 %
06.06.2019 22:08 16,9 C 15,0 C 14,4 C 68 % 1015,0 hPa 0,0 l/m 0 min 0 min 0 W/m 6,4 km/h (2 Bft) 95,12 %
06.06.2019 22:10 16,9 C 15,0 C 14,4 C 68 % 1015,0 hPa 0,0 l/m 0 min 0 min 0 W/m 0,0 km/h (0 Bft) 95,74 %
06.06.2019 22:12 16,9 C 15,0 C 14,4 C 69 % 1015,1 hPa 0,0 l/m 0 min 0 min 0 W/m 6,4 km/h (2 Bft) 95,74 %
06.06.2019 22:14 16,8 C 15,0 C 14,4 C 69 % 1015,1 hPa 0,0 l/m 0 min 0 min 0 W/m 3,2 km/h (1 Bft) 93,62 %
06.06.2019 22:16 16,8 C 15,0 C 14,4 C 69 % 1015,0 hPa 0,0 l/m 0 min 0 min 0 W/m 6,4 km/h (2 Bft) 95,74 %
06.06.2019 22:18 16,8 C 15,0 C 13,9 C 69 % 1015,0 hPa 0,0 l/m 0 min 0 min 0 W/m 3,2 km/h (1 Bft) 95,74 %
06.06.2019 22:20 16,7 C 15,0 C 13,9 C 69 % 1015,0 hPa 0,0 l/m 0 min 0 min 0 W/m 3,2 km/h (1 Bft) 95,74 %
06.06.2019 22:22 16,7 C 15,0 C 13,9 C 69 % 1015,0 hPa 0,0 l/m 0 min 0 min 0 W/m 3,2 km/h (1 Bft) 95,65 %
06.06.2019 22:24 16,7 C 15,0 C 13,9 C 69 % 1014,9 hPa 0,0 l/m 0 min 0 min 0 W/m 3,2 km/h (1 Bft) 95,74 %
06.06.2019 22:26 16,6 C 15,0 C 13,9 C 69 % 1014,9 hPa 0,0 l/m 0 min 0 min 0 W/m 3,2 km/h (1 Bft) 97,87 %
06.06.2019 22:28 16,6 C 15,0 C 13,9 C 69 % 1014,9 hPa 0,0 l/m 0 min 0 min 0 W/m 3,2 km/h (1 Bft) 97,87 %
06.06.2019 22:30 16,6 C 14,4 C 13,9 C 70 % 1014,9 hPa 0,0 l/m 0 min 0 min 0 W/m 0,0 km/h (0 Bft) 97,87 %
06.06.2019 22:32 16,5 C 14,4 C 13,3 C 71 % 1015,0 hPa 0,0 l/m 0 min 0 min 0 W/m 3,2 km/h (1 Bft) 97,87 %
06.06.2019 22:34 16,4 C 14,4 C 13,3 C 70 % 1015,0 hPa 0,0 l/m 0 min 0 min 0 W/m 3,2 km/h (1 Bft) 95,65 %
06.06.2019 22:36 16,4 C 14,4 C 12,8 C 71 % 1015,0 hPa 0,0 l/m 0 min 0 min 0 W/m 3,2 km/h (1 Bft) 95,74 %
06.06.2019 22:38 16,4 C 13,9 C 12,8 C 71 % 1015,0 hPa 0,0 l/m 0 min 0 min 0 W/m 0,0 km/h (0 Bft) 97,87 %
06.06.2019 22:40 16,3 C 13,9 C 12,8 C 72 % 1015,0 hPa 0,0 l/m 0 min 0 min 0 W/m 0,0 km/h (0 Bft) 100,00 %
06.06.2019 22:42 16,3 C 13,3 C 12,8 C 72 % 1015,1 hPa 0,0 l/m 0 min 0 min 0 W/m 0,0 km/h (0 Bft) 100,00 %
06.06.2019 22:44 16,2 C 13,3 C 12,2 C 73 % 1015,2 hPa 0,0 l/m 0 min 0 min 0 W/m 0,0 km/h (0 Bft) 95,65 %
06.06.2019 22:46 16,2 C 12,8 C 12,2 C 73 % 1015,1 hPa 0,0 l/m 0 min 0 min 0 W/m 0,0 km/h (0 Bft) 97,87 %
06.06.2019 22:48 16,1 C 13,3 C 12,2 C 73 % 1015,3 hPa 0,0 l/m 0 min 0 min 0 W/m 3,2 km/h (1 Bft) 100,00 %
06.06.2019 22:50 16,1 C 13,3 C 12,2 C 73 % 1015,1 hPa 0,0 l/m 0 min 0 min 0 W/m 3,2 km/h (1 Bft) 100,00 %
06.06.2019 22:52 16,0 C 13,3 C 12,2 C 73 % 1015,1 hPa 0,0 l/m 0 min 0 min 0 W/m 6,4 km/h (2 Bft) 100,00 %
06.06.2019 22:54 15,9 C 13,3 C 12,2 C 73 % 1015,1 hPa 0,0 l/m 0 min 0 min 0 W/m 3,2 km/h (1 Bft) 100,00 %
06.06.2019 22:56 15,8 C 13,3 C 12,2 C 73 % 1015,1 hPa 0,0 l/m 0 min 0 min 0 W/m 3,2 km/h (1 Bft) 100,00 %
06.06.2019 22:58 15,8 C 13,3 C 12,2 C 73 % 1015,2 hPa 0,0 l/m 0 min 0 min 0 W/m 3,2 km/h (1 Bft) 97,87 %
06.06.2019 23:00 15,7 C 13,3 C 12,2 C 74 % 1015,2 hPa 0,0 l/m 0 min 0 min 0 W/m 0,0 km/h (0 Bft) 100,00 %
06.06.2019 23:02 15,7 C 13,3 C 12,2 C 74 % 1015,2 hPa 0,0 l/m 0 min 0 min 0 W/m 0,0 km/h (0 Bft) 100,00 %
06.06.2019 23:04 15,6 C 13,3 C 12,2 C 74 % 1015,3 hPa 0,0 l/m 0 min 0 min 0 W/m 3,2 km/h (1 Bft) 100,00 %
06.06.2019 23:06 15,6 C 13,3 C 12,2 C 74 % 1015,2 hPa 0,0 l/m 0 min 0 min 0 W/m 3,2 km/h (1 Bft) 100,00 %
06.06.2019 23:08 15,5 C 13,3 C 12,2 C 74 % 1015,2 hPa 0,0 l/m 0 min 0 min 0 W/m 0,0 km/h (0 Bft) 100,00 %
06.06.2019 23:10 15,5 C 13,3 C 12,2 C 74 % 1015,2 hPa 0,0 l/m 0 min 0 min 0 W/m 3,2 km/h (1 Bft) 100,00 %
06.06.2019 23:12 15,4 C 13,3 C 11,7 C 74 % 1015,1 hPa 0,0 l/m 0 min 0 min 0 W/m 3,2 km/h (1 Bft) 100,00 %
06.06.2019 23:14 15,4 C 12,8 C 11,7 C 75 % 1015,1 hPa 0,0 l/m 0 min 0 min 0 W/m 0,0 km/h (0 Bft) 97,87 %
06.06.2019 23:16 15,3 C 12,8 C 11,7 C 75 % 1015,1 hPa 0,0 l/m 0 min 0 min 0 W/m 0,0 km/h (0 Bft) 100,00 %
06.06.2019 23:18 15,3 C 12,8 C 11,7 C 76 % 1015,2 hPa 0,0 l/m 0 min 0 min 0 W/m 0,0 km/h (0 Bft) 100,00 %
06.06.2019 23:20 15,2 C 13,3 C 11,7 C 76 % 1015,2 hPa 0,0 l/m 0 min 0 min 0 W/m 3,2 km/h (1 Bft) 100,00 %
06.06.2019 23:22 15,1 C 12,8 C 11,7 C 76 % 1015,2 hPa 0,0 l/m 0 min 0 min 0 W/m 3,2 km/h (1 Bft) 100,00 %
06.06.2019 23:24 15,1 C 13,3 C 11,7 C 76 % 1015,3 hPa 0,0 l/m 0 min 0 min 0 W/m 6,4 km/h (2 Bft) 97,87 %
06.06.2019 23:26 15,1 C 13,3 C 11,7 C 77 % 1015,2 hPa 0,0 l/m 0 min 0 min 0 W/m 3,2 km/h (1 Bft) 100,00 %
06.06.2019 23:28 15,0 C 13,3 C 12,2 C 77 % 1015,2 hPa 0,0 l/m 0 min 0 min 0 W/m 3,2 km/h (1 Bft) 97,87 %
06.06.2019 23:30 14,9 C 12,8 C 11,7 C 77 % 1015,2 hPa 0,0 l/m 0 min 0 min 0 W/m 0,0 km/h (0 Bft) 95,74 %
06.06.2019 23:32 14,9 C 12,2 C 11,7 C 78 % 1015,2 hPa 0,0 l/m 0 min 0 min 0 W/m 0,0 km/h (0 Bft) 97,83 %
06.06.2019 23:34 14,8 C 12,2 C 11,7 C 78 % 1015,2 hPa 0,0 l/m 0 min 0 min 0 W/m 0,0 km/h (0 Bft) 97,87 %
06.06.2019 23:36 14,8 C 12,2 C 11,7 C 78 % 1015,2 hPa 0,0 l/m 0 min 0 min 0 W/m 0,0 km/h (0 Bft) 97,87 %
06.06.2019 23:38 14,7 C 12,2 C 11,7 C 78 % 1015,2 hPa 0,0 l/m 0 min 0 min 0 W/m 0,0 km/h (0 Bft) 96,36 %
06.06.2019 23:40 14,7 C 11,7 C 11,1 C 78 % 1015,2 hPa 0,0 l/m 0 min 0 min 0 W/m 0,0 km/h (0 Bft) 97,87 %
06.06.2019 23:42 14,6 C 11,7 C 11,1 C 79 % 1015,3 hPa 0,0 l/m 0 min 0 min 0 W/m 3,2 km/h (1 Bft) 97,87 %
06.06.2019 23:44 14,6 C 11,7 C 11,1 C 79 % 1015,2 hPa 0,0 l/m 0 min 0 min 0 W/m 3,2 km/h (1 Bft) 97,87 %
06.06.2019 23:46 14,5 C 11,7 C 11,1 C 79 % 1015,2 hPa 0,0 l/m 0 min 0 min 0 W/m 3,2 km/h (1 Bft) 93,48 %
06.06.2019 23:48 14,5 C 12,2 C 11,1 C 79 % 1015,2 hPa 0,0 l/m 0 min 0 min 0 W/m 3,2 km/h (1 Bft) 97,87 %
06.06.2019 23:50 14,4 C 12,2 C 11,1 C 79 % 1015,2 hPa 0,0 l/m 0 min 0 min 0 W/m 3,2 km/h (1 Bft) 97,87 %
06.06.2019 23:52 14,4 C 12,2 C 11,1 C 79 % 1015,3 hPa 0,0 l/m 0 min 0 min 0 W/m 3,2 km/h (1 Bft) 95,74 %
06.06.2019 23:54 14,3 C 12,8 C 11,1 C 79 % 1015,3 hPa 0,0 l/m 0 min 0 min 0 W/m 3,2 km/h (1 Bft) 97,87 %
06.06.2019 23:56 14,3 C 12,8 C 11,7 C 79 % 1015,3 hPa 0,0 l/m 0 min 0 min 0 W/m 3,2 km/h (1 Bft) 97,87 %
06.06.2019 23:58 14,2 C 12,8 C 11,7 C 80 % 1015,3 hPa 0,0 l/m 0 min 0 min 0 W/m 0,0 km/h (0 Bft) 97,83 %
_ Min-Zeit 07:40 05:46 05:46 18:32 00:00 - - - - 01:26 07:28
Minimum _ 11,6 C 10,6 C 10,6 C 52 % 1002,7 hPa - - - - 0,0 km/h (0 Bft) 89,13 %
_ Max-Zeit 18:38 12:56 12:56 04:20 22:48 01:04 18:08 04:06 12:08 00:20 00:24
Maximum _ 21,3 C 26,1 C 26,1 C 97 % 1015,3 hPa 1,2 l/m 4 min 5 min 1111 W/m 38,6 km/h
S (5 Bft)
100,00 %
Durchschnitt _ 16,7 C 16,7 C 16,2 C 77 % 1011,3 hPa #13,4 l/m #7:40 h #3:45 h 372 W/m 11,4 km/h (2 Bft) 97,64 %
© 2019 W. Hausmann